Wetterdaten: aktuell Montag, 25.10.2021 10:28
Datum Zeit Temp 2m Temp 5cm Feuchte 2m Luftdruck Regen Wind Richtung Richtung ET UV Solar Taupunkt Windchill Windben Empfang
25.10.2021 10:28 5,3 C 6,7 C 84 % 1026,1 hPa 0,0 l/m 4,8 km/h (1 Bft) S-SO 157 0,000 mm 1,0 UV-I 396 W/m 2,8 C 5,3 C 11,3 km/h (2 Bft) 95,65 %
25.10.2021 10:27 5,3 C 6,7 C 84 % 1026,1 hPa 0,0 l/m 6,4 km/h (2 Bft) O-SO 112 0,000 mm 1,0 UV-I 392 W/m 2,8 C 5,3 C 11,3 km/h (2 Bft) 95,65 %
25.10.2021 10:26 5,2 C 6,7 C 84 % 1026,1 hPa 0,0 l/m 4,8 km/h (1 Bft) O-SO 112 0,000 mm 1,0 UV-I 390 W/m 2,7 C 5,2 C 12,9 km/h (3 Bft) 95,65 %
25.10.2021 10:25 5,1 C 6,7 C 84 % 1026,1 hPa 0,0 l/m 6,4 km/h (2 Bft) O-SO 112 0,000 mm 1,0 UV-I 388 W/m 2,6 C 5,1 C 14,5 km/h (3 Bft) 91,30 %
25.10.2021 10:24 5,1 C 6,7 C 85 % 1026,1 hPa 0,0 l/m 8,0 km/h (2 Bft) SO 135 0,000 mm 1,0 UV-I 387 W/m 2,8 C 3,7 C 11,3 km/h (2 Bft) 95,65 %
25.10.2021 10:23 5,0 C 6,7 C 85 % 1026,1 hPa 0,0 l/m 8,0 km/h (2 Bft) S-SO 157 0,000 mm 1,0 UV-I 385 W/m 2,7 C 3,6 C 12,9 km/h (3 Bft) 91,30 %
25.10.2021 10:22 4,9 C 6,7 C 86 % 1026,1 hPa 0,0 l/m 4,8 km/h (1 Bft) S-SO 157 0,000 mm 1,0 UV-I 380 W/m 2,8 C 4,9 C 9,7 km/h (2 Bft) 95,65 %
25.10.2021 10:21 4,9 C 6,7 C 86 % 1026,1 hPa 0,0 l/m 1,6 km/h (1 Bft) S-SO 157 0,000 mm 1,0 UV-I 378 W/m 2,8 C 4,9 C 3,2 km/h (1 Bft) 91,30 %
25.10.2021 10:20 4,8 C 6,7 C 86 % 1026,2 hPa 0,0 l/m 4,8 km/h (1 Bft) S-SO 157 0,000 mm 1,0 UV-I 376 W/m 2,7 C 4,8 C 9,7 km/h (2 Bft) 95,65 %
25.10.2021 10:19 4,8 C 6,1 C 86 % 1026,1 hPa 0,0 l/m 3,2 km/h (1 Bft) SO 135 0,000 mm 1,0 UV-I 374 W/m 2,7 C 4,8 C 6,4 km/h (2 Bft) 82,61 %
25.10.2021 10:18 4,7 C 6,1 C 86 % 1026,1 hPa 0,0 l/m 11,3 km/h (2 Bft) S-SO 157 0,000 mm 0,9 UV-I 371 W/m 2,6 C 0,9 C 16,1 km/h (3 Bft) 95,65 %
25.10.2021 10:17 4,7 C 6,1 C 87 % 1026,1 hPa 0,0 l/m 6,4 km/h (2 Bft) S-SO 157 0,000 mm 0,9 UV-I 369 W/m 2,7 C 4,7 C 14,5 km/h (3 Bft) 91,30 %
25.10.2021 10:16 4,6 C 6,1 C 87 % 1026,0 hPa 0,0 l/m 11,3 km/h (2 Bft) S-SO 157 0,000 mm 0,9 UV-I 366 W/m 2,6 C 0,7 C 14,5 km/h (3 Bft) 95,65 %
25.10.2021 10:15 4,6 C 6,1 C 87 % 1026,0 hPa 0,0 l/m 8,0 km/h (2 Bft) S-SO 157 0,000 mm 0,9 UV-I 364 W/m 2,6 C 3,2 C 14,5 km/h (3 Bft) 91,30 %
25.10.2021 10:14 4,5 C 6,1 C 88 % 1026,1 hPa 0,0 l/m 6,4 km/h (2 Bft) S-SO 157 0,000 mm 0,9 UV-I 362 W/m 2,7 C 4,5 C 9,7 km/h (2 Bft) 95,65 %
25.10.2021 10:13 4,4 C 6,1 C 88 % 1026,1 hPa 0,0 l/m 6,4 km/h (2 Bft) S-SO 157 0,000 mm 0,9 UV-I 359 W/m 2,6 C 4,4 C 14,5 km/h (3 Bft) 91,30 %
25.10.2021 10:12 4,3 C 6,1 C 89 % 1026,1 hPa 0,0 l/m 3,2 km/h (1 Bft) SO 135 0,000 mm 0,9 UV-I 357 W/m 2,7 C 4,3 C 6,4 km/h (2 Bft) 100,00 %
25.10.2021 10:11 4,3 C 5,6 C 89 % 1026,1 hPa 0,0 l/m 4,8 km/h (1 Bft) SO 135 0,000 mm 0,9 UV-I 355 W/m 2,7 C 4,3 C 8,0 km/h (2 Bft) 95,65 %
25.10.2021 10:10 4,3 C 5,6 C 89 % 1026,1 hPa 0,0 l/m 3,2 km/h (1 Bft) SO 135 0,000 mm 0,9 UV-I 352 W/m 2,7 C 4,3 C 8,0 km/h (2 Bft) 95,65 %
25.10.2021 10:09 4,2 C 5,6 C 89 % 1026,1 hPa 0,0 l/m 3,2 km/h (1 Bft) S-SO 157 0,000 mm 0,8 UV-I 350 W/m 2,6 C 4,2 C 8,0 km/h (2 Bft) 95,65 %
25.10.2021 10:08 4,2 C 5,0 C 90 % 1026,1 hPa 0,0 l/m 6,4 km/h (2 Bft) S 180 0,000 mm 0,8 UV-I 348 W/m 2,7 C 4,2 C 8,0 km/h (2 Bft) 95,65 %
25.10.2021 10:07 4,2 C 5,0 C 90 % 1026,1 hPa 0,0 l/m 6,4 km/h (2 Bft) S 180 0,000 mm 0,8 UV-I 345 W/m 2,7 C 4,2 C 8,0 km/h (2 Bft) 95,65 %
25.10.2021 10:06 4,1 C 5,0 C 90 % 1026,0 hPa 0,0 l/m 6,4 km/h (2 Bft) S-SO 157 0,000 mm 0,8 UV-I 343 W/m 2,6 C 4,1 C 11,3 km/h (2 Bft) 91,30 %
25.10.2021 10:05 4,0 C 5,0 C 91 % 1026,0 hPa 0,0 l/m 3,2 km/h (1 Bft) S 180 0,000 mm 0,8 UV-I 341 W/m 2,7 C 4,0 C 4,8 km/h (1 Bft) 100,00 %
25.10.2021 10:04 3,9 C 5,0 C 91 % 1026,1 hPa 0,0 l/m 3,2 km/h (1 Bft) S 180 0,000 mm 0,8 UV-I 338 W/m 2,6 C 3,9 C 4,8 km/h (1 Bft) 95,65 %
25.10.2021 10:03 3,9 C 4,4 C 91 % 1026,0 hPa 0,0 l/m 6,4 km/h (2 Bft) S 180 0,000 mm 0,8 UV-I 336 W/m 2,6 C 3,9 C 9,7 km/h (2 Bft) 95,65 %
25.10.2021 10:02 3,8 C 4,4 C 92 % 1026,1 hPa 0,0 l/m 8,0 km/h (2 Bft) S-SO 157 0,000 mm 0,8 UV-I 334 W/m 2,6 C 2,3 C 14,5 km/h (3 Bft) 95,65 %
25.10.2021 10:01 3,7 C 4,4 C 92 % 1026,1 hPa 0,0 l/m 11,3 km/h (2 Bft) SO 135 0,000 mm 0,8 UV-I 330 W/m 2,5 C -0,3 C 14,5 km/h (3 Bft) 95,65 %
25.10.2021 10:00 3,7 C 4,4 C 92 % 1026,1 hPa 0,0 l/m 6,4 km/h (2 Bft) S-SO 157 0,076 mm 0,8 UV-I 327 W/m 2,5 C 3,7 C 14,5 km/h (3 Bft) 95,65 %
25.10.2021 09:59 3,6 C 4,4 C 92 % 1026,1 hPa 0,0 l/m 3,2 km/h (1 Bft) S-SO 157 0,000 mm 0,7 UV-I 325 W/m 2,4 C 3,6 C 8,0 km/h (2 Bft) 100,00 %
25.10.2021 09:58 3,6 C 3,9 C 92 % 1026,1 hPa 0,0 l/m 3,2 km/h (1 Bft) S-SO 157 0,000 mm 0,7 UV-I 323 W/m 2,4 C 3,6 C 6,4 km/h (2 Bft) 95,65 %
25.10.2021 09:57 3,4 C 3,9 C 92 % 1026,1 hPa 0,0 l/m 6,4 km/h (2 Bft) S-SO 157 0,000 mm 0,7 UV-I 320 W/m 2,2 C 3,4 C 9,7 km/h (2 Bft) 91,30 %
25.10.2021 09:56 3,4 C 3,9 C 93 % 1026,1 hPa 0,0 l/m 4,8 km/h (1 Bft) SO 135 0,000 mm 0,7 UV-I 318 W/m 2,4 C 3,4 C 8,0 km/h (2 Bft) 100,00 %
25.10.2021 09:55 3,4 C 3,9 C 93 % 1026,1 hPa 0,0 l/m 6,4 km/h (2 Bft) S-SO 157 0,000 mm 0,7 UV-I 316 W/m 2,4 C 3,4 C 8,0 km/h (2 Bft) 95,65 %
25.10.2021 09:54 3,3 C 3,9 C 93 % 1026,1 hPa 0,0 l/m 4,8 km/h (1 Bft) S-SO 157 0,000 mm 0,7 UV-I 313 W/m 2,3 C 3,3 C 9,7 km/h (2 Bft) 91,30 %
25.10.2021 09:53 3,3 C 3,3 C 93 % 1026,1 hPa 0,0 l/m 6,4 km/h (2 Bft) S-SO 157 0,000 mm 0,7 UV-I 311 W/m 2,3 C 3,3 C 11,3 km/h (2 Bft) 95,65 %
25.10.2021 09:52 3,2 C 3,3 C 93 % 1026,2 hPa 0,0 l/m 4,8 km/h (1 Bft) SO 135 0,000 mm 0,7 UV-I 308 W/m 2,2 C 3,2 C 8,0 km/h (2 Bft) 95,65 %
25.10.2021 09:51 3,1 C 3,3 C 93 % 1026,1 hPa 0,0 l/m 6,4 km/h (2 Bft) SO 135 0,000 mm 0,7 UV-I 306 W/m 2,1 C 3,1 C 9,7 km/h (2 Bft) 95,65 %
25.10.2021 09:50 3,1 C 2,8 C 93 % 1026,1 hPa 0,0 l/m 4,8 km/h (1 Bft) SO 135 0,000 mm 0,7 UV-I 304 W/m 2,1 C 3,1 C 8,0 km/h (2 Bft) 91,30 %
25.10.2021 09:49 3,1 C 2,8 C 94 % 1026,1 hPa 0,0 l/m 4,8 km/h (1 Bft) SO 135 0,000 mm 0,7 UV-I 302 W/m 2,2 C 3,1 C 12,9 km/h (3 Bft) 95,65 %
25.10.2021 09:48 3,0 C 2,8 C 94 % 1026,1 hPa 0,0 l/m 4,8 km/h (1 Bft) S-SO 157 0,000 mm 0,6 UV-I 299 W/m 2,1 C 3,0 C 9,7 km/h (2 Bft) 95,65 %
25.10.2021 09:47 2,9 C 2,8 C 94 % 1026,1 hPa 0,0 l/m 8,0 km/h (2 Bft) S-SO 157 0,000 mm 0,6 UV-I 295 W/m 2,0 C 1,4 C 12,9 km/h (3 Bft) 100,00 %
25.10.2021 09:46 2,8 C 2,8 C 94 % 1026,2 hPa 0,0 l/m 9,7 km/h (2 Bft) SO 135 0,000 mm 0,6 UV-I 294 W/m 1,9 C -0,1 C 11,3 km/h (2 Bft) 95,65 %
25.10.2021 09:45 2,8 C 2,8 C 94 % 1026,2 hPa 0,0 l/m 8,0 km/h (2 Bft) S-SO 157 0,000 mm 0,6 UV-I 292 W/m 1,9 C 1,3 C 12,9 km/h (3 Bft) 91,30 %
25.10.2021 09:44 2,7 C 2,8 C 94 % 1026,1 hPa 0,0 l/m 4,8 km/h (1 Bft) S-SO 157 0,000 mm 0,6 UV-I 290 W/m 1,8 C 2,7 C 6,4 km/h (2 Bft) 100,00 %
25.10.2021 09:43 2,7 C 2,2 C 94 % 1026,2 hPa 0,0 l/m 4,8 km/h (1 Bft) S-SO 157 0,000 mm 0,6 UV-I 288 W/m 1,8 C 2,7 C 6,4 km/h (2 Bft) 95,65 %
25.10.2021 09:42 2,6 C 2,2 C 94 % 1026,1 hPa 0,0 l/m 4,8 km/h (1 Bft) S-SO 157 0,000 mm 0,6 UV-I 285 W/m 1,7 C 2,6 C 9,7 km/h (2 Bft) 95,65 %
25.10.2021 09:41 2,6 C 2,2 C 94 % 1026,1 hPa 0,0 l/m 6,4 km/h (2 Bft) S 180 0,000 mm 0,6 UV-I 281 W/m 1,7 C 2,6 C 9,7 km/h (2 Bft) 100,00 %
25.10.2021 09:40 2,6 C 2,2 C 94 % 1026,2 hPa 0,0 l/m 4,8 km/h (1 Bft) SO 135 0,000 mm 0,5 UV-I 278 W/m 1,7 C 2,6 C 8,0 km/h (2 Bft) 95,65 %
25.10.2021 09:39 2,4 C 1,7 C 94 % 1026,1 hPa 0,0 l/m 4,8 km/h (1 Bft) S-SO 157 0,000 mm 0,5 UV-I 276 W/m 1,5 C 2,4 C 8,0 km/h (2 Bft) 95,65 %
25.10.2021 09:38 2,4 C 1,7 C 94 % 1026,1 hPa 0,0 l/m 6,4 km/h (2 Bft) S-SO 157 0,000 mm 0,5 UV-I 274 W/m 1,5 C 2,4 C 9,7 km/h (2 Bft) 100,00 %
25.10.2021 09:37 2,3 C 1,7 C 94 % 1026,1 hPa 0,0 l/m 6,4 km/h (2 Bft) S-SO 157 0,000 mm 0,5 UV-I 272 W/m 1,4 C 2,3 C 9,7 km/h (2 Bft) 91,30 %
25.10.2021 09:36 2,3 C 1,7 C 94 % 1026,1 hPa 0,0 l/m 8,0 km/h (2 Bft) S-SO 157 0,000 mm 0,5 UV-I 269 W/m 1,4 C 0,8 C 9,7 km/h (2 Bft) 91,30 %
25.10.2021 09:35 2,3 C 1,7 C 94 % 1026,1 hPa 0,0 l/m 4,8 km/h (1 Bft) S-SO 157 0,000 mm 0,5 UV-I 262 W/m 1,4 C 2,3 C 6,4 km/h (2 Bft) 100,00 %
25.10.2021 09:34 2,2 C 1,1 C 94 % 1026,2 hPa 0,0 l/m 6,4 km/h (2 Bft) S-SO 157 0,000 mm 0,5 UV-I 258 W/m 1,3 C 2,2 C 9,7 km/h (2 Bft) 91,30 %
25.10.2021 09:33 2,1 C 1,1 C 94 % 1026,1 hPa 0,0 l/m 4,8 km/h (1 Bft) S-SO 157 0,000 mm 0,5 UV-I 255 W/m 1,2 C 2,1 C 8,0 km/h (2 Bft) 95,65 %
25.10.2021 09:32 2,1 C 1,1 C 94 % 1026,2 hPa 0,0 l/m 6,4 km/h (2 Bft) S 180 0,000 mm 0,5 UV-I 253 W/m 1,2 C 2,1 C 9,7 km/h (2 Bft) 100,00 %
25.10.2021 09:31 2,1 C 1,1 C 94 % 1026,1 hPa 0,0 l/m 6,4 km/h (2 Bft) S 180 0,000 mm 0,5 UV-I 250 W/m 1,2 C 2,1 C 9,7 km/h (2 Bft) 95,65 %
25.10.2021 09:30 1,9 C 1,1 C 94 % 1026,1 hPa 0,0 l/m 4,8 km/h (1 Bft) S 180 0,000 mm 0,5 UV-I 248 W/m 1,0 C 1,9 C 6,4 km/h (2 Bft) 95,65 %
25.10.2021 09:29 1,9 C 1,1 C 94 % 1026,1 hPa 0,0 l/m 4,8 km/h (1 Bft) S 180 0,000 mm 0,5 UV-I 243 W/m 1,0 C 1,9 C 6,4 km/h (2 Bft) 100,00 %
25.10.2021 09:28 1,9 C 1,1 C 94 % 1026,1 hPa 0,0 l/m 6,4 km/h (2 Bft) S 180 0,000 mm 0,5 UV-I 239 W/m 1,0 C 1,9 C 8,0 km/h (2 Bft) 95,65 %
25.10.2021 09:27 1,8 C 1,1 C 94 % 1026,1 hPa 0,0 l/m 3,2 km/h (1 Bft) S 180 0,000 mm 0,0 UV-I 237 W/m 0,9 C 1,8 C 8,0 km/h (2 Bft) 95,65 %
25.10.2021 09:26 1,8 C 1,1 C 94 % 1026,2 hPa 0,0 l/m 4,8 km/h (1 Bft) S 180 0,000 mm 0,0 UV-I 236 W/m 0,9 C 1,8 C 8,0 km/h (2 Bft) 100,00 %
25.10.2021 09:25 1,7 C 1,1 C 94 % 1026,2 hPa 0,0 l/m 6,4 km/h (2 Bft) S 180 0,000 mm 0,0 UV-I 232 W/m 0,8 C 1,7 C 9,7 km/h (2 Bft) 91,30 %
25.10.2021 09:24 1,7 C 0,6 C 94 % 1026,3 hPa 0,0 l/m 4,8 km/h (1 Bft) S-SO 157 0,000 mm 0,0 UV-I 230 W/m 0,8 C 1,7 C 8,0 km/h (2 Bft) 95,65 %
25.10.2021 09:23 1,6 C 0,6 C 94 % 1026,2 hPa 0,0 l/m 3,2 km/h (1 Bft) S-SO 157 0,000 mm 0,0 UV-I 225 W/m 0,7 C 1,6 C 4,8 km/h (1 Bft) 100,00 %
25.10.2021 09:22 1,5 C 0,6 C 94 % 1026,2 hPa 0,0 l/m 4,8 km/h (1 Bft) S-SO 157 0,000 mm 0,0 UV-I 221 W/m 0,6 C 1,5 C 8,0 km/h (2 Bft) 95,65 %
25.10.2021 09:21 1,4 C 0,6 C 94 % 1026,2 hPa 0,0 l/m 4,8 km/h (1 Bft) S-SO 157 0,000 mm 0,0 UV-I 220 W/m 0,5 C 1,4 C 9,7 km/h (2 Bft) 95,65 %
25.10.2021 09:20 1,3 C 0,6 C 94 % 1026,2 hPa 0,0 l/m 4,8 km/h (1 Bft) S 180 0,000 mm 0,0 UV-I 218 W/m 0,4 C 1,3 C 8,0 km/h (2 Bft) 95,65 %
25.10.2021 09:19 1,3 C 0,6 C 94 % 1026,2 hPa 0,0 l/m 3,2 km/h (1 Bft) S 180 0,000 mm 0,0 UV-I 214 W/m 0,4 C 1,3 C 6,4 km/h (2 Bft) 100,00 %
25.10.2021 09:18 1,2 C 0,6 C 94 % 1026,2 hPa 0,0 l/m 4,8 km/h (1 Bft) S-SO 157 0,000 mm 0,0 UV-I 209 W/m 0,3 C 1,2 C 8,0 km/h (2 Bft) 91,30 %
25.10.2021 09:17 1,1 C 0,6 C 94 % 1026,2 hPa 0,0 l/m 4,8 km/h (1 Bft) S-SO 157 0,000 mm 0,0 UV-I 207 W/m 0,2 C 1,1 C 6,4 km/h (2 Bft) 91,30 %
25.10.2021 09:16 1,0 C 0,0 C 94 % 1026,2 hPa 0,0 l/m 4,8 km/h (1 Bft) S-SO 157 0,000 mm 0,0 UV-I 204 W/m 0,1 C 1,0 C 8,0 km/h (2 Bft) 100,00 %
25.10.2021 09:15 0,9 C 0,0 C 95 % 1026,2 hPa 0,0 l/m 4,8 km/h (1 Bft) S-SO 157 0,000 mm 0,0 UV-I 200 W/m 0,2 C 0,9 C 6,4 km/h (2 Bft) 95,65 %
25.10.2021 09:14 0,8 C 0,0 C 94 % 1026,2 hPa 0,0 l/m 3,2 km/h (1 Bft) S-SO 157 0,000 mm 0,0 UV-I 199 W/m -0,1 C 0,8 C 4,8 km/h (1 Bft) 95,65 %
25.10.2021 09:13 0,8 C 0,0 C 94 % 1026,2 hPa 0,0 l/m 3,2 km/h (1 Bft) S-SO 157 0,000 mm 0,0 UV-I 197 W/m -0,1 C 0,8 C 4,8 km/h (1 Bft) 100,00 %
25.10.2021 09:12 0,6 C 0,0 C 94 % 1026,1 hPa 0,0 l/m 3,2 km/h (1 Bft) S-SO 157 0,000 mm 0,0 UV-I 192 W/m -0,3 C 0,6 C 4,8 km/h (1 Bft) 95,65 %
25.10.2021 09:11 0,6 C 0,0 C 94 % 1026,2 hPa 0,0 l/m 3,2 km/h (1 Bft) S-SO 157 0,000 mm 0,0 UV-I 188 W/m -0,3 C 0,6 C 4,8 km/h (1 Bft) 95,65 %
25.10.2021 09:10 0,4 C 0,0 C 94 % 1026,1 hPa 0,0 l/m 1,6 km/h (1 Bft) S-SO 157 0,000 mm 0,0 UV-I 186 W/m -0,5 C 0,4 C 3,2 km/h (1 Bft) 95,65 %
25.10.2021 09:09 0,3 C 0,0 C 94 % 1026,2 hPa 0,0 l/m 1,6 km/h (1 Bft) S-SO 157 0,000 mm 0,0 UV-I 183 W/m -0,5 C 0,3 C 3,2 km/h (1 Bft) 95,65 %
25.10.2021 09:08 0,2 C 0,0 C 94 % 1026,2 hPa 0,0 l/m 3,2 km/h (1 Bft) S-SO 157 0,000 mm 0,0 UV-I 181 W/m -0,6 C 0,2 C 4,8 km/h (1 Bft) 91,30 %
25.10.2021 09:07 0,0 C 0,0 C 94 % 1026,1 hPa 0,0 l/m 3,2 km/h (1 Bft) S-SO 157 0,000 mm 0,0 UV-I 179 W/m -0,8 C 0,0 C 4,8 km/h (1 Bft) 100,00 %
25.10.2021 09:06 -0,1 C 0,0 C 94 % 1026,1 hPa 0,0 l/m 1,6 km/h (1 Bft) S-SO 157 0,000 mm 0,0 UV-I 174 W/m -0,9 C -0,1 C 3,2 km/h (1 Bft) 91,30 %
25.10.2021 09:05 -0,1 C 0,0 C 94 % 1026,1 hPa 0,0 l/m 3,2 km/h (1 Bft) S-SO 157 0,000 mm 0,0 UV-I 171 W/m -0,9 C -0,1 C 4,8 km/h (1 Bft) 95,65 %
25.10.2021 09:04 -0,2 C 0,0 C 94 % 1026,1 hPa 0,0 l/m 1,6 km/h (1 Bft) S-SO 157 0,000 mm 0,0 UV-I 169 W/m -1,0 C -0,2 C 4,8 km/h (1 Bft) 95,65 %
25.10.2021 09:03 -0,3 C 0,0 C 94 % 1026,1 hPa 0,0 l/m 0,0 km/h (0 Bft) S-SO 157 0,000 mm 0,0 UV-I 165 W/m -1,1 C -0,3 C 1,6 km/h (1 Bft) 91,30 %
25.10.2021 09:02 -0,4 C 0,0 C 94 % 1026,1 hPa 0,0 l/m 1,6 km/h (1 Bft) S-SO 157 0,000 mm 0,0 UV-I 162 W/m -1,2 C -0,4 C 3,2 km/h (1 Bft) 86,96 %
25.10.2021 09:01 -0,4 C 0,0 C 94 % 1026,1 hPa 0,0 l/m 3,2 km/h (1 Bft) S-SO 157 0,000 mm 0,0 UV-I 160 W/m -1,2 C -0,4 C 3,2 km/h (1 Bft) 91,30 %
25.10.2021 09:00 -0,6 C 0,0 C 94 % 1026,1 hPa 0,0 l/m 3,2 km/h (1 Bft) S-SO 157 0,025 mm 0,0 UV-I 155 W/m -1,4 C -0,6 C 3,2 km/h (1 Bft) 91,30 %
25.10.2021 08:59 -0,6 C 0,0 C 94 % 1026,1 hPa 0,0 l/m 3,2 km/h (1 Bft) S-SO 157 0,000 mm 0,0 UV-I 151 W/m -1,4 C -0,6 C 3,2 km/h (1 Bft) 91,30 %
25.10.2021 08:58 -0,7 C 0,0 C 94 % 1026,1 hPa 0,0 l/m 3,2 km/h (1 Bft) S-SO 157 0,000 mm 0,0 UV-I 149 W/m -1,5 C -0,7 C 3,2 km/h (1 Bft) 91,30 %
25.10.2021 08:57 -0,8 C 0,0 C 94 % 1026,1 hPa 0,0 l/m 3,2 km/h (1 Bft) S-SO 157 0,000 mm 0,0 UV-I 146 W/m -1,6 C -0,8 C 3,2 km/h (1 Bft) 86,96 %
25.10.2021 08:56 -0,9 C 0,0 C 94 % 1026,1 hPa 0,0 l/m 1,6 km/h (1 Bft) S-SO 157 0,000 mm 0,0 UV-I 144 W/m -1,7 C -0,9 C 3,2 km/h (1 Bft) 86,96 %
25.10.2021 08:55 -1,0 C 0,0 C 94 % 1026,1 hPa 0,0 l/m 1,6 km/h (1 Bft) S-SO 157 0,000 mm 0,0 UV-I 142 W/m -1,8 C -1,0 C 3,2 km/h (1 Bft) 95,65 %
25.10.2021 08:54 -1,1 C 0,0 C 94 % 1026,0 hPa 0,0 l/m 3,2 km/h (1 Bft) S-SO 157 0,000 mm 0,0 UV-I 137 W/m -1,9 C -1,1 C 3,2 km/h (1 Bft) 91,30 %
25.10.2021 08:53 -1,2 C 0,0 C 94 % 1026,1 hPa 0,0 l/m 1,6 km/h (1 Bft) S-SO 157 0,000 mm 0,0 UV-I 132 W/m -2,0 C -1,2 C 3,2 km/h (1 Bft) 91,30 %
25.10.2021 08:52 -1,2 C 0,0 C 94 % 1026,0 hPa 0,0 l/m 1,6 km/h (1 Bft) S-SO 157 0,000 mm 0,0 UV-I 132 W/m -2,0 C -1,2 C 3,2 km/h (1 Bft) 95,65 %
25.10.2021 08:51 -1,3 C 0,0 C 94 % 1026,0 hPa 0,0 l/m 1,6 km/h (1 Bft) S-SO 157 0,000 mm 0,0 UV-I 128 W/m -2,1 C -1,3 C 1,6 km/h (1 Bft) 91,30 %
25.10.2021 08:50 -1,4 C 0,0 C 93 % 1026,0 hPa 0,0 l/m 1,6 km/h (1 Bft) S-SO 157 0,000 mm 0,0 UV-I 127 W/m -2,4 C -1,4 C 3,2 km/h (1 Bft) 91,30 %
25.10.2021 08:49 -1,6 C -0,6 C 93 % 1026,0 hPa 0,0 l/m 1,6 km/h (1 Bft) S-SO 157 0,000 mm 0,0 UV-I 125 W/m -2,6 C -1,6 C 3,2 km/h (1 Bft) 95,65 %
25.10.2021 08:48 -1,7 C -0,6 C 93 % 1026,0 hPa 0,0 l/m 1,6 km/h (1 Bft) S-SO 157 0,000 mm 0,0 UV-I 120 W/m -2,7 C -1,7 C 3,2 km/h (1 Bft) 91,30 %
25.10.2021 08:47 -1,8 C -0,6 C 93 % 1025,9 hPa 0,0 l/m 0,0 km/h (0 Bft) S-SO 157 0,000 mm 0,0 UV-I 118 W/m -2,8 C -1,8 C 3,2 km/h (1 Bft) 86,96 %
25.10.2021 08:46 -1,8 C -0,6 C 93 % 1025,9 hPa 0,0 l/m 0,0 km/h (0 Bft) N 0 0,000 mm 0,0 UV-I 118 W/m -2,8 C -1,8 C 0,0 km/h (0 Bft) 95,65 %
25.10.2021 08:45 -1,9 C -0,6 C 93 % 1026,0 hPa 0,0 l/m 0,0 km/h (0 Bft) N 0 0,000 mm 0,0 UV-I 118 W/m -2,9 C -1,9 C 0,0 km/h (0 Bft) 82,61 %
25.10.2021 08:44 -2,0 C -0,6 C 92 % 1025,9 hPa 0,0 l/m 0,0 km/h (0 Bft) S-SO 157 0,000 mm 0,0 UV-I 120 W/m -3,1 C -2,0 C 3,2 km/h (1 Bft) 91,30 %
25.10.2021 08:43 -2,0 C -2,8 C 92 % 1025,9 hPa 0,0 l/m 1,6 km/h (1 Bft) S-SO 157 0,000 mm 0,0 UV-I 120 W/m -3,1 C -2,0 C 4,8 km/h (1 Bft) 95,65 %
25.10.2021 08:42 -2,1 C -2,8 C 92 % 1025,9 hPa 0,0 l/m 1,6 km/h (1 Bft) S-SO 157 0,000 mm 0,0 UV-I 116 W/m -3,2 C -2,1 C 3,2 km/h (1 Bft) 95,65 %
25.10.2021 08:41 -2,2 C -2,8 C 92 % 1025,9 hPa 0,0 l/m 0,0 km/h (0 Bft) S-SO 157 0,000 mm 0,0 UV-I 116 W/m -3,3 C -2,2 C 1,6 km/h (1 Bft) 91,30 %
25.10.2021 08:40 -2,2 C -2,8 C 92 % 1025,9 hPa 0,0 l/m 1,6 km/h (1 Bft) S-SO 157 0,000 mm 0,0 UV-I 114 W/m -3,3 C -2,2 C 3,2 km/h (1 Bft) 95,65 %
25.10.2021 08:39 -2,3 C -2,8 C 92 % 1025,9 hPa 0,0 l/m 1,6 km/h (1 Bft) S-SO 157 0,000 mm 0,0 UV-I 111 W/m -3,4 C -2,3 C 1,6 km/h (1 Bft) 91,30 %
25.10.2021 08:38 -2,3 C -2,8 C 92 % 1025,9 hPa 0,0 l/m 3,2 km/h (1 Bft) S-SO 157 0,000 mm 0,0 UV-I 109 W/m -3,4 C -2,3 C 3,2 km/h (1 Bft) 91,30 %
25.10.2021 08:37 -2,3 C -2,8 C 92 % 1025,9 hPa 0,0 l/m 1,6 km/h (1 Bft) S-SO 157 0,000 mm 0,0 UV-I 111 W/m -3,4 C -2,3 C 3,2 km/h (1 Bft) 86,96 %
25.10.2021 08:36 -2,4 C -2,8 C 92 % 1025,9 hPa 0,0 l/m 1,6 km/h (1 Bft) S-SO 157 0,000 mm 0,0 UV-I 104 W/m -3,5 C -2,4 C 3,2 km/h (1 Bft) 95,65 %
25.10.2021 08:35 -2,4 C -2,8 C 92 % 1025,9 hPa 0,0 l/m 0,0 km/h (0 Bft) S-SO 157 0,000 mm 0,0 UV-I 100 W/m -3,5 C -2,4 C 1,6 km/h (1 Bft) 91,30 %
25.10.2021 08:34 -2,4 C -2,8 C 92 % 1025,9 hPa 0,0 l/m 0,0 km/h (0 Bft) N 0 0,000 mm 0,0 UV-I 93 W/m -3,5 C -2,4 C 0,0 km/h (0 Bft) 95,65 %
25.10.2021 08:33 -2,5 C -2,8 C 92 % 1025,9 hPa 0,0 l/m 0,0 km/h (0 Bft) N 0 0,000 mm 0,0 UV-I 88 W/m -3,6 C -2,5 C 0,0 km/h (0 Bft) 100,00 %
25.10.2021 08:32 -2,5 C -2,8 C 92 % 1026,0 hPa 0,0 l/m 0,0 km/h (0 Bft) N 0 0,000 mm 0,0 UV-I 81 W/m -3,6 C -2,5 C 0,0 km/h (0 Bft) 91,30 %
25.10.2021 08:31 -2,6 C -2,8 C 92 % 1025,9 hPa 0,0 l/m 0,0 km/h (0 Bft) N 0 0,000 mm 0,0 UV-I 26 W/m -3,7 C -2,6 C 0,0 km/h (0 Bft) 91,30 %
25.10.2021 08:30 -2,6 C -2,8 C 92 % 1025,9 hPa 0,0 l/m 0,0 km/h (0 Bft) N 0 0,000 mm 0,0 UV-I 19 W/m -3,7 C -2,6 C 0,0 km/h (0 Bft) 95,65 %
25.10.2021 08:29 -2,6 C -2,8 C 92 % 1025,9 hPa 0,0 l/m 0,0 km/h (0 Bft) N 0 0,000 mm 0,0 UV-I 19 W/m -3,7 C -2,6 C 0,0 km/h (0 Bft) 95,65 %
25.10.2021 08:28 -2,7 C -2,8 C 92 % 1025,9 hPa 0,0 l/m 0,0 km/h (0 Bft) N 0 0,000 mm 0,0 UV-I 19 W/m -3,8 C -2,7 C 0,0 km/h (0 Bft) 95,65 %
25.10.2021 08:27 -2,7 C -2,8 C 92 % 1025,9 hPa 0,0 l/m 0,0 km/h (0 Bft) N 0 0,000 mm 0,0 UV-I 19 W/m -3,8 C -2,7 C 0,0 km/h (0 Bft) 100,00 %
25.10.2021 08:26 -2,7 C -2,8 C 92 % 1025,9 hPa 0,0 l/m 0,0 km/h (0 Bft) N 0 0,000 mm 0,0 UV-I 19 W/m -3,8 C -2,7 C 0,0 km/h (0 Bft) 95,65 %
25.10.2021 08:25 -2,7 C -2,8 C 92 % 1025,9 hPa 0,0 l/m 0,0 km/h (0 Bft) N 0 0,000 mm 0,0 UV-I 19 W/m -3,8 C -2,7 C 0,0 km/h (0 Bft) 91,30 %
25.10.2021 08:24 -2,8 C -2,8 C 92 % 1025,8 hPa 0,0 l/m 0,0 km/h (0 Bft) N 0 0,000 mm 0,0 UV-I 19 W/m -3,9 C -2,8 C 0,0 km/h (0 Bft) 100,00 %
25.10.2021 08:23 -2,8 C -2,8 C 91 % 1025,8 hPa 0,0 l/m 0,0 km/h (0 Bft) N 0 0,000 mm 0,0 UV-I 19 W/m -4,1 C -2,8 C 0,0 km/h (0 Bft) 95,65 %
25.10.2021 08:22 -2,8 C -2,8 C 91 % 1025,9 hPa 0,0 l/m 0,0 km/h (0 Bft) N 0 0,000 mm 0,0 UV-I 19 W/m -4,1 C -2,8 C 0,0 km/h (0 Bft) 91,30 %
25.10.2021 08:21 -2,8 C -2,8 C 91 % 1025,9 hPa 0,0 l/m 0,0 km/h (0 Bft) N 0 0,000 mm 0,0 UV-I 18 W/m -4,1 C -2,8 C 0,0 km/h (0 Bft) 95,65 %
25.10.2021 08:20 -2,8 C -2,8 C 91 % 1025,9 hPa 0,0 l/m 0,0 km/h (0 Bft) N 0 0,000 mm 0,0 UV-I 18 W/m -4,1 C -2,8 C 0,0 km/h (0 Bft) 91,30 %
25.10.2021 08:19 -2,9 C -2,8 C 91 % 1025,9 hPa 0,0 l/m 0,0 km/h (0 Bft) N 0 0,000 mm 0,0 UV-I 18 W/m -4,2 C -2,9 C 0,0 km/h (0 Bft) 95,65 %
25.10.2021 08:18 -2,9 C -2,8 C 91 % 1025,9 hPa 0,0 l/m 0,0 km/h (0 Bft) S-SO 157 0,000 mm 0,0 UV-I 18 W/m -4,2 C -2,9 C 1,6 km/h (1 Bft) 100,00 %
25.10.2021 08:17 -2,9 C -2,8 C 91 % 1025,9 hPa 0,0 l/m 1,6 km/h (1 Bft) S-SO 157 0,000 mm 0,0 UV-I 18 W/m -4,2 C -2,9 C 3,2 km/h (1 Bft) 86,96 %
25.10.2021 08:16 -2,9 C -2,8 C 91 % 1025,9 hPa 0,0 l/m 1,6 km/h (1 Bft) S-SO 157 0,000 mm 0,0 UV-I 18 W/m -4,2 C -2,9 C 3,2 km/h (1 Bft) 91,30 %
25.10.2021 08:15 -2,9 C -2,8 C 91 % 1025,9 hPa 0,0 l/m 3,2 km/h (1 Bft) S-SO 157 0,000 mm 0,0 UV-I 18 W/m -4,2 C -2,9 C 3,2 km/h (1 Bft) 100,00 %
25.10.2021 08:14 -3,0 C -2,8 C 91 % 1025,9 hPa 0,0 l/m 4,8 km/h (1 Bft) S-SO 157 0,000 mm 0,0 UV-I 18 W/m -4,3 C -3,0 C 4,8 km/h (1 Bft) 91,30 %
25.10.2021 08:13 -3,0 C -2,8 C 91 % 1025,9 hPa 0,0 l/m 4,8 km/h (1 Bft) S-SO 157 0,000 mm 0,0 UV-I 16 W/m -4,3 C -3,0 C 6,4 km/h (2 Bft) 95,65 %
25.10.2021 08:12 -3,1 C -2,8 C 91 % 1025,9 hPa 0,0 l/m 4,8 km/h (1 Bft) S-SO 157 0,000 mm 0,0 UV-I 16 W/m -4,4 C -3,1 C 6,4 km/h (2 Bft) 95,65 %
25.10.2021 08:11 -3,1 C -2,8 C 91 % 1025,9 hPa 0,0 l/m 4,8 km/h (1 Bft) S-SO 157 0,000 mm 0,0 UV-I 16 W/m -4,4 C -3,1 C 4,8 km/h (1 Bft) 95,65 %
25.10.2021 08:10 -3,1 C -2,8 C 91 % 1025,9 hPa 0,0 l/m 3,2 km/h (1 Bft) S-SO 157 0,000 mm 0,0 UV-I 16 W/m -4,4 C -3,1 C 4,8 km/h (1 Bft) 95,65 %
25.10.2021 08:09 -3,1 C -2,8 C 91 % 1025,9 hPa 0,0 l/m 3,2 km/h (1 Bft) S-SO 157 0,000 mm 0,0 UV-I 16 W/m -4,4 C -3,1 C 4,8 km/h (1 Bft) 100,00 %
25.10.2021 08:08 -3,1 C -2,8 C 91 % 1025,9 hPa 0,0 l/m 3,2 km/h (1 Bft) S-SO 157 0,000 mm 0,0 UV-I 16 W/m -4,4 C -3,1 C 3,2 km/h (1 Bft) 95,65 %
25.10.2021 08:07 -3,1 C -2,8 C 91 % 1025,8 hPa 0,0 l/m 3,2 km/h (1 Bft) S-SO 157 0,000 mm 0,0 UV-I 14 W/m -4,4 C -3,1 C 4,8 km/h (1 Bft) 95,65 %
25.10.2021 08:06 -3,1 C -2,8 C 91 % 1025,9 hPa 0,0 l/m 3,2 km/h (1 Bft) S-SO 157 0,000 mm 0,0 UV-I 14 W/m -4,4 C -3,1 C 3,2 km/h (1 Bft) 100,00 %
25.10.2021 08:05 -3,2 C -2,8 C 91 % 1025,8 hPa 0,0 l/m 3,2 km/h (1 Bft) S-SO 157 0,000 mm 0,0 UV-I 14 W/m -4,5 C -3,2 C 4,8 km/h (1 Bft) 95,65 %
25.10.2021 08:04 -3,1 C -2,8 C 91 % 1025,8 hPa 0,0 l/m 3,2 km/h (1 Bft) S-SO 157 0,000 mm 0,0 UV-I 14 W/m -4,4 C -3,1 C 4,8 km/h (1 Bft) 95,65 %
25.10.2021 08:03 -3,2 C -2,8 C 91 % 1025,8 hPa 0,0 l/m 3,2 km/h (1 Bft) S-SO 157 0,000 mm 0,0 UV-I 14 W/m -4,5 C -3,2 C 4,8 km/h (1 Bft) 95,65 %
25.10.2021 08:02 -3,2 C -2,8 C 91 % 1025,8 hPa 0,0 l/m 1,6 km/h (1 Bft) S-SO 157 0,000 mm 0,0 UV-I 14 W/m -4,5 C -3,2 C 3,2 km/h (1 Bft) 95,65 %
25.10.2021 08:01 -3,2 C -2,8 C 91 % 1025,8 hPa 0,0 l/m 1,6 km/h (1 Bft) S-SO 157 0,000 mm 0,0 UV-I 14 W/m -4,5 C -3,2 C 3,2 km/h (1 Bft) 95,65 %
25.10.2021 08:00 -3,2 C -2,8 C 91 % 1025,8 hPa 0,0 l/m 1,6 km/h (1 Bft) S-SO 157 0,000 mm 0,0 UV-I 12 W/m -4,5 C -3,2 C 3,2 km/h (1 Bft) 95,65 %
25.10.2021 07:59 -3,2 C -2,8 C 91 % 1025,8 hPa 0,0 l/m 3,2 km/h (1 Bft) S-SO 157 0,000 mm 0,0 UV-I 12 W/m -4,5 C -3,2 C 4,8 km/h (1 Bft) 91,30 %
25.10.2021 07:58 -3,2 C -2,8 C 91 % 1025,8 hPa 0,0 l/m 4,8 km/h (1 Bft) S-SO 157 0,000 mm 0,0 UV-I 12 W/m -4,5 C -3,2 C 4,8 km/h (1 Bft) 95,65 %
25.10.2021 07:57 -3,2 C -2,8 C 91 % 1025,8 hPa 0,0 l/m 4,8 km/h (1 Bft) S-SO 157 0,000 mm 0,0 UV-I 12 W/m -4,5 C -3,2 C 4,8 km/h (1 Bft) 95,65 %
25.10.2021 07:56 -3,2 C -2,8 C 91 % 1025,8 hPa 0,0 l/m 4,8 km/h (1 Bft) S-SO 157 0,000 mm 0,0 UV-I 12 W/m -4,5 C -3,2 C 4,8 km/h (1 Bft) 95,65 %
25.10.2021 07:55 -3,2 C -2,8 C 91 % 1025,9 hPa 0,0 l/m 6,4 km/h (2 Bft) S-SO 157 0,000 mm 0,0 UV-I 12 W/m -4,5 C -3,2 C 6,4 km/h (2 Bft) 95,65 %
25.10.2021 07:54 -3,2 C -2,8 C 91 % 1025,8 hPa 0,0 l/m 4,8 km/h (1 Bft) S-SO 157 0,000 mm 0,0 UV-I 11 W/m -4,5 C -3,2 C 8,0 km/h (2 Bft) 100,00 %
25.10.2021 07:53 -3,2 C -2,8 C 91 % 1025,8 hPa 0,0 l/m 6,4 km/h (2 Bft) SO 135 0,000 mm 0,0 UV-I 11 W/m -4,5 C -3,2 C 8,0 km/h (2 Bft) 95,65 %
25.10.2021 07:52 -3,2 C -2,8 C 91 % 1025,8 hPa 0,0 l/m 3,2 km/h (1 Bft) SO 135 0,000 mm 0,0 UV-I 11 W/m -4,5 C -3,2 C 4,8 km/h (1 Bft) 95,65 %
25.10.2021 07:51 -3,2 C -2,8 C 91 % 1025,8 hPa 0,0 l/m 3,2 km/h (1 Bft) O-SO 112 0,000 mm 0,0 UV-I 11 W/m -4,5 C -3,2 C 4,8 km/h (1 Bft) 95,65 %
25.10.2021 07:50 -3,3 C -2,8 C 91 % 1025,8 hPa 0,0 l/m 1,6 km/h (1 Bft) O-SO 112 0,000 mm 0,0 UV-I 11 W/m -4,6 C -3,3 C 3,2 km/h (1 Bft) 100,00 %
25.10.2021 07:49 -3,2 C -2,8 C 91 % 1025,7 hPa 0,0 l/m 1,6 km/h (1 Bft) O-SO 112 0,000 mm 0,0 UV-I 11 W/m -4,5 C -3,2 C 1,6 km/h (1 Bft) 95,65 %
25.10.2021 07:48 -3,3 C -2,8 C 91 % 1025,7 hPa 0,0 l/m 0,0 km/h (0 Bft) O-SO 112 0,000 mm 0,0 UV-I 11 W/m -4,6 C -3,3 C 1,6 km/h (1 Bft) 95,65 %
25.10.2021 07:47 -3,3 C -2,8 C 91 % 1025,7 hPa 0,0 l/m 0,0 km/h (0 Bft) O-SO 112 0,000 mm 0,0 UV-I 9 W/m -4,6 C -3,3 C 1,6 km/h (1 Bft) 95,65 %
25.10.2021 07:46 -3,3 C -2,8 C 91 % 1025,7 hPa 0,0 l/m 0,0 km/h (0 Bft) N 0 0,000 mm 0,0 UV-I 9 W/m -4,6 C -3,3 C 0,0 km/h (0 Bft) 91,30 %
25.10.2021 07:45 -3,3 C -2,8 C 91 % 1025,7 hPa 0,0 l/m 0,0 km/h (0 Bft) N 0 0,000 mm 0,0 UV-I 9 W/m -4,6 C -3,3 C 0,0 km/h (0 Bft) 95,65 %
25.10.2021 07:44 -3,3 C -2,8 C 91 % 1025,7 hPa 0,0 l/m 0,0 km/h (0 Bft) O-SO 112 0,000 mm 0,0 UV-I 9 W/m -4,6 C -3,3 C 1,6 km/h (1 Bft) 95,65 %
25.10.2021 07:43 -3,3 C -2,8 C 91 % 1025,7 hPa 0,0 l/m 1,6 km/h (1 Bft) O-SO 112 0,000 mm 0,0 UV-I 9 W/m -4,6 C -3,3 C 3,2 km/h (1 Bft) 95,65 %
25.10.2021 07:42 -3,3 C -2,8 C 91 % 1025,6 hPa 0,0 l/m 0,0 km/h (0 Bft) O-SO 112 0,000 mm 0,0 UV-I 7 W/m -4,6 C -3,3 C 3,2 km/h (1 Bft) 91,30 %
25.10.2021 07:41 -3,3 C -2,8 C 91 % 1025,6 hPa 0,0 l/m 0,0 km/h (0 Bft) N 0 0,000 mm 0,0 UV-I 7 W/m -4,6 C -3,3 C 0,0 km/h (0 Bft) 100,00 %
25.10.2021 07:40 -3,3 C -2,8 C 91 % 1025,6 hPa 0,0 l/m 0,0 km/h (0 Bft) N 0 0,000 mm 0,0 UV-I 7 W/m -4,6 C -3,3 C 0,0 km/h (0 Bft) 95,65 %
25.10.2021 07:39 -3,3 C -2,8 C 91 % 1025,7 hPa 0,0 l/m 0,0 km/h (0 Bft) N 0 0,000 mm 0,0 UV-I 7 W/m -4,6 C -3,3 C 0,0 km/h (0 Bft) 91,30 %
25.10.2021 07:38 -3,3 C -2,8 C 91 % 1025,6 hPa 0,0 l/m 0,0 km/h (0 Bft) O-SO 112 0,000 mm 0,0 UV-I 7 W/m -4,6 C -3,3 C 1,6 km/h (1 Bft) 100,00 %
25.10.2021 07:37 -3,3 C -2,8 C 91 % 1025,6 hPa 0,0 l/m 1,6 km/h (1 Bft) O-SO 112 0,000 mm 0,0 UV-I 5 W/m -4,6 C -3,3 C 1,6 km/h (1 Bft) 91,30 %
25.10.2021 07:36 -3,3 C -2,8 C 91 % 1025,6 hPa 0,0 l/m 3,2 km/h (1 Bft) O-SO 112 0,000 mm 0,0 UV-I 5 W/m -4,6 C -3,3 C 3,2 km/h (1 Bft) 95,65 %
25.10.2021 07:35 -3,3 C -2,8 C 91 % 1025,6 hPa 0,0 l/m 1,6 km/h (1 Bft) O-SO 112 0,000 mm 0,0 UV-I 5 W/m -4,6 C -3,3 C 3,2 km/h (1 Bft) 91,30 %
25.10.2021 07:34 -3,3 C -2,8 C 90 % 1025,6 hPa 0,0 l/m 1,6 km/h (1 Bft) O-SO 112 0,000 mm 0,0 UV-I 5 W/m -4,7 C -3,3 C 3,2 km/h (1 Bft) 91,30 %
25.10.2021 07:33 -3,3 C -2,8 C 90 % 1025,7 hPa 0,0 l/m 1,6 km/h (1 Bft) O-SO 112 0,000 mm 0,0 UV-I 5 W/m -4,7 C -3,3 C 3,2 km/h (1 Bft) 95,65 %
25.10.2021 07:32 -3,3 C -2,8 C 90 % 1025,6 hPa 0,0 l/m 1,6 km/h (1 Bft) O-SO 112 0,000 mm 0,0 UV-I 5 W/m -4,7 C -3,3 C 3,2 km/h (1 Bft) 100,00 %
25.10.2021 07:31 -3,3 C -2,8 C 90 % 1025,6 hPa 0,0 l/m 1,6 km/h (1 Bft) O-SO 112 0,000 mm 0,0 UV-I 5 W/m -4,7 C -3,3 C 3,2 km/h (1 Bft) 91,30 %
25.10.2021 07:30 -3,3 C -2,8 C 90 % 1025,6 hPa 0,0 l/m 1,6 km/h (1 Bft) O-SO 112 0,000 mm 0,0 UV-I 0 W/m -4,7 C -3,3 C 1,6 km/h (1 Bft) 91,30 %
25.10.2021 07:29 -3,3 C -2,8 C 90 % 1025,7 hPa 0,0 l/m 1,6 km/h (1 Bft) O-SO 112 0,000 mm 0,0 UV-I 0 W/m -4,7 C -3,3 C 3,2 km/h (1 Bft) 100,00 %
25.10.2021 07:28 -3,3 C -2,8 C 90 % 1025,7 hPa 0,0 l/m 0,0 km/h (0 Bft) O-SO 112 0,000 mm 0,0 UV-I 0 W/m -4,7 C -3,3 C 1,6 km/h (1 Bft) 91,30 %
25.10.2021 07:27 -3,3 C -2,8 C 90 % 1025,7 hPa 0,0 l/m 1,6 km/h (1 Bft) O-SO 112 0,000 mm 0,0 UV-I 0 W/m -4,7 C -3,3 C 3,2 km/h (1 Bft) 91,30 %
25.10.2021 07:26 -3,3 C -2,8 C 90 % 1025,7 hPa 0,0 l/m 1,6 km/h (1 Bft) O-SO 112 0,000 mm 0,0 UV-I 0 W/m -4,7 C -3,3 C 3,2 km/h (1 Bft) 100,00 %
25.10.2021 07:25 -3,3 C -2,8 C 90 % 1025,7 hPa 0,0 l/m 1,6 km/h (1 Bft) O-SO 112 0,000 mm 0,0 UV-I 0 W/m -4,7 C -3,3 C 3,2 km/h (1 Bft) 91,30 %
25.10.2021 07:24 -3,3 C -2,8 C 90 % 1025,7 hPa 0,0 l/m 1,6 km/h (1 Bft) O-SO 112 0,000 mm 0,0 UV-I 0 W/m -4,7 C -3,3 C 3,2 km/h (1 Bft) 95,65 %
25.10.2021 07:23 -3,3 C -2,8 C 90 % 1025,7 hPa 0,0 l/m 3,2 km/h (1 Bft) O-SO 112 0,000 mm 0,0 UV-I 0 W/m -4,7 C -3,3 C 3,2 km/h (1 Bft) 95,65 %
25.10.2021 07:22 -3,3 C -2,8 C 90 % 1025,7 hPa 0,0 l/m 1,6 km/h (1 Bft) O-SO 112 0,000 mm 0,0 UV-I 0 W/m -4,7 C -3,3 C 3,2 km/h (1 Bft) 86,96 %
25.10.2021 07:21 -3,2 C -2,8 C 90 % 1025,7 hPa 0,0 l/m 3,2 km/h (1 Bft) O-SO 112 0,000 mm 0,0 UV-I 0 W/m -4,6 C -3,2 C 3,2 km/h (1 Bft) 91,30 %
25.10.2021 07:20 -3,3 C -2,8 C 90 % 1025,7 hPa 0,0 l/m 1,6 km/h (1 Bft) O-SO 112 0,000 mm 0,0 UV-I 0 W/m -4,7 C -3,3 C 3,2 km/h (1 Bft) 100,00 %
25.10.2021 07:19 -3,3 C -2,8 C 90 % 1025,7 hPa 0,0 l/m 1,6 km/h (1 Bft) O-SO 112 0,000 mm 0,0 UV-I 0 W/m -4,7 C -3,3 C 3,2 km/h (1 Bft) 91,30 %
25.10.2021 07:18 -3,3 C -2,8 C 90 % 1025,7 hPa 0,0 l/m 0,0 km/h (0 Bft) O-SO 112 0,000 mm 0,0 UV-I 0 W/m -4,7 C -3,3 C 1,6 km/h (1 Bft) 95,65 %
25.10.2021 07:17 -3,2 C -2,8 C 90 % 1025,7 hPa 0,0 l/m 0,0 km/h (0 Bft) O-SO 112 0,000 mm 0,0 UV-I 0 W/m -4,6 C -3,2 C 1,6 km/h (1 Bft) 95,65 %
25.10.2021 07:16 -3,2 C -2,8 C 90 % 1025,7 hPa 0,0 l/m 0,0 km/h (0 Bft) N 0 0,000 mm 0,0 UV-I 0 W/m -4,6 C -3,2 C 0,0 km/h (0 Bft) 91,30 %
25.10.2021 07:15 -3,2 C -2,8 C 90 % 1025,7 hPa 0,0 l/m 0,0 km/h (0 Bft) N 0 0,000 mm 0,0 UV-I 0 W/m -4,6 C -3,2 C 0,0 km/h (0 Bft) 95,65 %
25.10.2021 07:14 -3,2 C -2,8 C 90 % 1025,6 hPa 0,0 l/m 1,6 km/h (1 Bft) O-SO 112 0,000 mm 0,0 UV-I 0 W/m -4,6 C -3,2 C 3,2 km/h (1 Bft) 91,30 %
25.10.2021 07:13 -3,2 C -2,8 C 90 % 1025,7 hPa 0,0 l/m 1,6 km/h (1 Bft) O-SO 112 0,000 mm 0,0 UV-I 0 W/m -4,6 C -3,2 C 3,2 km/h (1 Bft) 95,65 %
25.10.2021 07:12 -3,2 C -2,8 C 90 % 1025,6 hPa 0,0 l/m 1,6 km/h (1 Bft) O-SO 112 0,000 mm 0,0 UV-I 0 W/m -4,6 C -3,2 C 3,2 km/h (1 Bft) 86,96 %
25.10.2021 07:11 -3,2 C -2,8 C 90 % 1025,6 hPa 0,0 l/m 0,0 km/h (0 Bft) O-SO 112 0,000 mm 0,0 UV-I 0 W/m -4,6 C -3,2 C 1,6 km/h (1 Bft) 100,00 %
25.10.2021 07:10 -3,2 C -2,8 C 90 % 1025,6 hPa 0,0 l/m 1,6 km/h (1 Bft) O-SO 112 0,000 mm 0,0 UV-I 0 W/m -4,6 C -3,2 C 3,2 km/h (1 Bft) 86,96 %
25.10.2021 07:09 -3,2 C -2,8 C 90 % 1025,7 hPa 0,0 l/m 1,6 km/h (1 Bft) O-SO 112 0,000 mm 0,0 UV-I 0 W/m -4,6 C -3,2 C 3,2 km/h (1 Bft) 95,65 %
25.10.2021 07:08 -3,2 C -2,8 C 90 % 1025,6 hPa 0,0 l/m 0,0 km/h (0 Bft) O-SO 112 0,000 mm 0,0 UV-I 0 W/m -4,6 C -3,2 C 1,6 km/h (1 Bft) 91,30 %
25.10.2021 07:07 -3,2 C -2,8 C 90 % 1025,6 hPa 0,0 l/m 1,6 km/h (1 Bft) O-SO 112 0,000 mm 0,0 UV-I 0 W/m -4,6 C -3,2 C 3,2 km/h (1 Bft) 100,00 %
25.10.2021 07:06 -3,2 C -2,8 C 90 % 1025,7 hPa 0,0 l/m 0,0 km/h (0 Bft) N 0 0,000 mm 0,0 UV-I 0 W/m -4,6 C -3,2 C 0,0 km/h (0 Bft) 91,30 %
25.10.2021 07:05 -3,2 C -2,8 C 90 % 1025,6 hPa 0,0 l/m 0,0 km/h (0 Bft) N 0 0,000 mm 0,0 UV-I 0 W/m -4,6 C -3,2 C 0,0 km/h (0 Bft) 91,30 %
25.10.2021 07:04 -3,2 C -2,8 C 90 % 1025,6 hPa 0,0 l/m 0,0 km/h (0 Bft) N 0 0,000 mm 0,0 UV-I 0 W/m -4,6 C -3,2 C 0,0 km/h (0 Bft) 95,65 %
25.10.2021 07:03 -3,2 C -2,8 C 90 % 1025,6 hPa 0,0 l/m 0,0 km/h (0 Bft) N 0 0,000 mm 0,0 UV-I 0 W/m -4,6 C -3,2 C 0,0 km/h (0 Bft) 95,65 %
25.10.2021 07:02 -3,2 C -2,8 C 90 % 1025,6 hPa 0,0 l/m 0,0 km/h (0 Bft) N 0 0,000 mm 0,0 UV-I 0 W/m -4,6 C -3,2 C 0,0 km/h (0 Bft) 91,30 %
25.10.2021 07:01 -3,2 C -2,8 C 90 % 1025,6 hPa 0,0 l/m 0,0 km/h (0 Bft) N 0 0,000 mm 0,0 UV-I 0 W/m -4,6 C -3,2 C 0,0 km/h (0 Bft) 95,65 %
25.10.2021 07:00 -3,2 C -2,8 C 90 % 1025,7 hPa 0,0 l/m 0,0 km/h (0 Bft) O-SO 112 0,000 mm 0,0 UV-I 0 W/m -4,6 C -3,2 C 1,6 km/h (1 Bft) 91,30 %
25.10.2021 06:59 -3,2 C -2,8 C 90 % 1025,7 hPa 0,0 l/m 1,6 km/h (1 Bft) O-SO 112 0,000 mm 0,0 UV-I 0 W/m -4,6 C -3,2 C 3,2 km/h (1 Bft) 95,65 %
25.10.2021 06:58 -3,2 C -2,8 C 90 % 1025,6 hPa 0,0 l/m 1,6 km/h (1 Bft) O-SO 112 0,000 mm 0,0 UV-I 0 W/m -4,6 C -3,2 C 1,6 km/h (1 Bft) 100,00 %
25.10.2021 06:57 -3,2 C -2,8 C 90 % 1025,7 hPa 0,0 l/m 0,0 km/h (0 Bft) N 0 0,000 mm 0,0 UV-I 0 W/m -4,6 C -3,2 C 0,0 km/h (0 Bft) 95,65 %
25.10.2021 06:56 -3,2 C -2,8 C 90 % 1025,7 hPa 0,0 l/m 0,0 km/h (0 Bft) O-SO 112 0,000 mm 0,0 UV-I 0 W/m -4,6 C -3,2 C 1,6 km/h (1 Bft) 95,65 %
25.10.2021 06:55 -3,2 C -2,8 C 90 % 1025,7 hPa 0,0 l/m 0,0 km/h (0 Bft) N 0 0,000 mm 0,0 UV-I 0 W/m -4,6 C -3,2 C 0,0 km/h (0 Bft) 95,65 %
25.10.2021 06:54 -3,2 C -2,8 C 90 % 1025,7 hPa 0,0 l/m 0,0 km/h (0 Bft) O-SO 112 0,000 mm 0,0 UV-I 0 W/m -4,6 C -3,2 C 1,6 km/h (1 Bft) 95,65 %
25.10.2021 06:53 -3,2 C -2,8 C 90 % 1025,7 hPa 0,0 l/m 1,6 km/h (1 Bft) O-SO 112 0,000 mm 0,0 UV-I 0 W/m -4,6 C -3,2 C 1,6 km/h (1 Bft) 95,65 %
25.10.2021 06:52 -3,2 C -2,8 C 90 % 1025,7 hPa 0,0 l/m 1,6 km/h (1 Bft) O-SO 112 0,000 mm 0,0 UV-I 0 W/m -4,6 C -3,2 C 3,2 km/h (1 Bft) 95,65 %
25.10.2021 06:51 -3,2 C -2,8 C 90 % 1025,7 hPa 0,0 l/m 1,6 km/h (1 Bft) O-SO 112 0,000 mm 0,0 UV-I 0 W/m -4,6 C -3,2 C 3,2 km/h (1 Bft) 95,65 %
25.10.2021 06:50 -3,1 C -2,8 C 90 % 1025,7 hPa 0,0 l/m 1,6 km/h (1 Bft) O-SO 112 0,000 mm 0,0 UV-I 0 W/m -4,5 C -3,1 C 3,2 km/h (1 Bft) 95,65 %
25.10.2021 06:49 -3,1 C -2,8 C 90 % 1025,8 hPa 0,0 l/m 1,6 km/h (1 Bft) O-SO 112 0,000 mm 0,0 UV-I 0 W/m -4,5 C -3,1 C 3,2 km/h (1 Bft) 100,00 %
25.10.2021 06:48 -3,1 C -2,8 C 90 % 1025,8 hPa 0,0 l/m 3,2 km/h (1 Bft) O-SO 112 0,000 mm 0,0 UV-I 0 W/m -4,5 C -3,1 C 3,2 km/h (1 Bft) 95,65 %
25.10.2021 06:47 -3,1 C -2,8 C 90 % 1025,8 hPa 0,0 l/m 3,2 km/h (1 Bft) O-SO 112 0,000 mm 0,0 UV-I 0 W/m -4,5 C -3,1 C 4,8 km/h (1 Bft) 95,65 %
25.10.2021 06:46 -3,1 C -2,8 C 90 % 1025,7 hPa 0,0 l/m 1,6 km/h (1 Bft) O-SO 112 0,000 mm 0,0 UV-I 0 W/m -4,5 C -3,1 C 3,2 km/h (1 Bft) 100,00 %
25.10.2021 06:45 -3,1 C -2,8 C 90 % 1025,8 hPa 0,0 l/m 0,0 km/h (0 Bft) O-SO 112 0,000 mm 0,0 UV-I 0 W/m -4,5 C -3,1 C 1,6 km/h (1 Bft) 95,65 %
25.10.2021 06:44 -3,1 C -2,8 C 90 % 1025,8 hPa 0,0 l/m 0,0 km/h (0 Bft) O-SO 112 0,000 mm 0,0 UV-I 0 W/m -4,5 C -3,1 C 1,6 km/h (1 Bft) 91,30 %
25.10.2021 06:43 -3,1 C -2,8 C 90 % 1025,8 hPa 0,0 l/m 0,0 km/h (0 Bft) N 0 0,000 mm 0,0 UV-I 0 W/m -4,5 C -3,1 C 0,0 km/h (0 Bft) 95,65 %
25.10.2021 06:42 -3,1 C -2,8 C 90 % 1025,8 hPa 0,0 l/m 0,0 km/h (0 Bft) O-SO 112 0,000 mm 0,0 UV-I 0 W/m -4,5 C -3,1 C 1,6 km/h (1 Bft) 95,65 %
25.10.2021 06:41 -3,1 C -2,8 C 90 % 1025,8 hPa 0,0 l/m 1,6 km/h (1 Bft) O-SO 112 0,000 mm 0,0 UV-I 0 W/m -4,5 C -3,1 C 1,6 km/h (1 Bft) 95,65 %
25.10.2021 06:40 -3,1 C -2,8 C 90 % 1025,7 hPa 0,0 l/m 0,0 km/h (0 Bft) N 0 0,000 mm 0,0 UV-I 0 W/m -4,5 C -3,1 C 0,0 km/h (0 Bft) 100,00 %
25.10.2021 06:39 -3,1 C -2,8 C 90 % 1025,8 hPa 0,0 l/m 0,0 km/h (0 Bft) N 0 0,000 mm 0,0 UV-I 0 W/m -4,5 C -3,1 C 0,0 km/h (0 Bft) 95,65 %
25.10.2021 06:38 -3,1 C -2,8 C 90 % 1025,8 hPa 0,0 l/m 0,0 km/h (0 Bft) N 0 0,000 mm 0,0 UV-I 0 W/m -4,5 C -3,1 C 0,0 km/h (0 Bft) 95,65 %
25.10.2021 06:37 -3,1 C -2,8 C 90 % 1025,8 hPa 0,0 l/m 0,0 km/h (0 Bft) N 0 0,000 mm 0,0 UV-I 0 W/m -4,5 C -3,1 C 0,0 km/h (0 Bft) 100,00 %
25.10.2021 06:36 -3,0 C -2,8 C 90 % 1025,8 hPa 0,0 l/m 0,0 km/h (0 Bft) N 0 0,000 mm 0,0 UV-I 0 W/m -4,4 C -3,0 C 0,0 km/h (0 Bft) 95,65 %
25.10.2021 06:35 -3,0 C -2,8 C 90 % 1025,8 hPa 0,0 l/m 0,0 km/h (0 Bft) N 0 0,000 mm 0,0 UV-I 0 W/m -4,4 C -3,0 C 0,0 km/h (0 Bft) 91,30 %
25.10.2021 06:34 -3,0 C -2,8 C 90 % 1025,8 hPa 0,0 l/m 0,0 km/h (0 Bft) O-SO 112 0,000 mm 0,0 UV-I 0 W/m -4,4 C -3,0 C 1,6 km/h (1 Bft) 100,00 %
25.10.2021 06:33 -3,0 C -2,8 C 90 % 1025,8 hPa 0,0 l/m 0,0 km/h (0 Bft) O-SO 112 0,000 mm 0,0 UV-I 0 W/m -4,4 C -3,0 C 1,6 km/h (1 Bft) 95,65 %
25.10.2021 06:32 -3,0 C -2,8 C 90 % 1025,8 hPa 0,0 l/m 1,6 km/h (1 Bft) O-SO 112 0,000 mm 0,0 UV-I 0 W/m -4,4 C -3,0 C 1,6 km/h (1 Bft) 95,65 %
25.10.2021 06:31 -2,9 C -2,8 C 90 % 1025,7 hPa 0,0 l/m 1,6 km/h (1 Bft) O-SO 112 0,000 mm 0,0 UV-I 0 W/m -4,3 C -2,9 C 3,2 km/h (1 Bft) 91,30 %
25.10.2021 06:30 -2,9 C -2,8 C 90 % 1025,8 hPa 0,0 l/m 1,6 km/h (1 Bft) O-SO 112 0,000 mm 0,0 UV-I 0 W/m -4,3 C -2,9 C 3,2 km/h (1 Bft) 95,65 %
25.10.2021 06:29 -2,9 C -2,8 C 90 % 1025,8 hPa 0,0 l/m 3,2 km/h (1 Bft) O-SO 112 0,000 mm 0,0 UV-I 0 W/m -4,3 C -2,9 C 4,8 km/h (1 Bft) 95,65 %
25.10.2021 06:28 -2,9 C -2,8 C 90 % 1025,7 hPa 0,0 l/m 4,8 km/h (1 Bft) O-SO 112 0,000 mm 0,0 UV-I 0 W/m -4,3 C -2,9 C 4,8 km/h (1 Bft) 100,00 %
25.10.2021 06:27 -2,9 C -2,8 C 90 % 1025,7 hPa 0,0 l/m 1,6 km/h (1 Bft) O-SO 112 0,000 mm 0,0 UV-I 0 W/m -4,3 C -2,9 C 4,8 km/h (1 Bft) 95,65 %
25.10.2021 06:26 -2,9 C -2,8 C 90 % 1025,7 hPa 0,0 l/m 0,0 km/h (0 Bft) N 0 0,000 mm 0,0 UV-I 0 W/m -4,3 C -2,9 C 0,0 km/h (0 Bft) 95,65 %
25.10.2021 06:25 -2,9 C -2,8 C 90 % 1025,8 hPa 0,0 l/m 0,0 km/h (0 Bft) N 0 0,000 mm 0,0 UV-I 0 W/m -4,3 C -2,9 C 0,0 km/h (0 Bft) 95,65 %
25.10.2021 06:24 -2,9 C -2,8 C 90 % 1025,8 hPa 0,0 l/m 0,0 km/h (0 Bft) N 0 0,000 mm 0,0 UV-I 0 W/m -4,3 C -2,9 C 0,0 km/h (0 Bft) 100,00 %
25.10.2021 06:23 -2,8 C -2,8 C 90 % 1025,8 hPa 0,0 l/m 0,0 km/h (0 Bft) N 0 0,000 mm 0,0 UV-I 0 W/m -4,2 C -2,8 C 0,0 km/h (0 Bft) 91,30 %
25.10.2021 06:22 -2,8 C -2,8 C 90 % 1025,8 hPa 0,0 l/m 0,0 km/h (0 Bft) N 0 0,000 mm 0,0 UV-I 0 W/m -4,2 C -2,8 C 0,0 km/h (0 Bft) 95,65 %
25.10.2021 06:21 -2,8 C -2,8 C 90 % 1025,8 hPa 0,0 l/m 0,0 km/h (0 Bft) N 0 0,000 mm 0,0 UV-I 0 W/m -4,2 C -2,8 C 0,0 km/h (0 Bft) 100,00 %
25.10.2021 06:20 -2,8 C -2,8 C 90 % 1025,8 hPa 0,0 l/m 0,0 km/h (0 Bft) N 0 0,000 mm 0,0 UV-I 0 W/m -4,2 C -2,8 C 0,0 km/h (0 Bft) 95,65 %
25.10.2021 06:19 -2,8 C -2,8 C 90 % 1025,8 hPa 0,0 l/m 0,0 km/h (0 Bft) N 0 0,000 mm 0,0 UV-I 0 W/m -4,2 C -2,8 C 0,0 km/h (0 Bft) 95,65 %
25.10.2021 06:18 -2,8 C -2,8 C 90 % 1025,8 hPa 0,0 l/m 0,0 km/h (0 Bft) N 0 0,000 mm 0,0 UV-I 0 W/m -4,2 C -2,8 C 0,0 km/h (0 Bft) 100,00 %
25.10.2021 06:17 -2,8 C -2,8 C 90 % 1025,8 hPa 0,0 l/m 0,0 km/h (0 Bft) N 0 0,000 mm 0,0 UV-I 0 W/m -4,2 C -2,8 C 0,0 km/h (0 Bft) 91,30 %
25.10.2021 06:16 -2,8 C -2,2 C 90 % 1025,8 hPa 0,0 l/m 0,0 km/h (0 Bft) N 0 0,000 mm 0,0 UV-I 0 W/m -4,2 C -2,8 C 0,0 km/h (0 Bft) 91,30 %
25.10.2021 06:15 -2,8 C -2,2 C 90 % 1025,9 hPa 0,0 l/m 0,0 km/h (0 Bft) N 0 0,000 mm 0,0 UV-I 0 W/m -4,2 C -2,8 C 0,0 km/h (0 Bft) 100,00 %
25.10.2021 06:14 -2,7 C -2,2 C 90 % 1025,8 hPa 0,0 l/m 0,0 km/h (0 Bft) N 0 0,000 mm 0,0 UV-I 0 W/m -4,1 C -2,7 C 0,0 km/h (0 Bft) 86,96 %
25.10.2021 06:13 -2,7 C -2,2 C 90 % 1025,8 hPa 0,0 l/m 0,0 km/h (0 Bft) N 0 0,000 mm 0,0 UV-I 0 W/m -4,1 C -2,7 C 0,0 km/h (0 Bft) 95,65 %
25.10.2021 06:12 -2,7 C -2,2 C 90 % 1025,8 hPa 0,0 l/m 0,0 km/h (0 Bft) N 0 0,000 mm 0,0 UV-I 0 W/m -4,1 C -2,7 C 0,0 km/h (0 Bft) 95,65 %
25.10.2021 06:11 -2,7 C -2,2 C 90 % 1025,9 hPa 0,0 l/m 0,0 km/h (0 Bft) N 0 0,000 mm 0,0 UV-I 0 W/m -4,1 C -2,7 C 0,0 km/h (0 Bft) 95,65 %
25.10.2021 06:10 -2,7 C -2,2 C 90 % 1025,8 hPa 0,0 l/m 0,0 km/h (0 Bft) N 0 0,000 mm 0,0 UV-I 0 W/m -4,1 C -2,7 C 0,0 km/h (0 Bft) 91,30 %
25.10.2021 06:09 -2,7 C -2,2 C 90 % 1025,9 hPa 0,0 l/m 0,0 km/h (0 Bft) N 0 0,000 mm 0,0 UV-I 0 W/m -4,1 C -2,7 C 0,0 km/h (0 Bft) 100,00 %
25.10.2021 06:08 -2,7 C -2,2 C 90 % 1025,9 hPa 0,0 l/m 0,0 km/h (0 Bft) N 0 0,000 mm 0,0 UV-I 0 W/m -4,1 C -2,7 C 0,0 km/h (0 Bft) 91,30 %
25.10.2021 06:07 -2,7 C -2,2 C 90 % 1026,0 hPa 0,0 l/m 0,0 km/h (0 Bft) N 0 0,000 mm 0,0 UV-I 0 W/m -4,1 C -2,7 C 0,0 km/h (0 Bft) 91,30 %
25.10.2021 06:06 -2,7 C -2,2 C 90 % 1025,9 hPa 0,0 l/m 0,0 km/h (0 Bft) N 0 0,000 mm 0,0 UV-I 0 W/m -4,1 C -2,7 C 0,0 km/h (0 Bft) 91,30 %
25.10.2021 06:05 -2,7 C -2,2 C 90 % 1026,0 hPa 0,0 l/m 0,0 km/h (0 Bft) N 0 0,000 mm 0,0 UV-I 0 W/m -4,1 C -2,7 C 0,0 km/h (0 Bft) 91,30 %
25.10.2021 06:04 -2,7 C -2,2 C 90 % 1026,0 hPa 0,0 l/m 0,0 km/h (0 Bft) N 0 0,000 mm 0,0 UV-I 0 W/m -4,1 C -2,7 C 0,0 km/h (0 Bft) 95,65 %
25.10.2021 06:03 -2,7 C -2,2 C 90 % 1025,9 hPa 0,0 l/m 0,0 km/h (0 Bft) N 0 0,000 mm 0,0 UV-I 0 W/m -4,1 C -2,7 C 0,0 km/h (0 Bft) 91,30 %
25.10.2021 06:02 -2,7 C -2,2 C 90 % 1026,0 hPa 0,0 l/m 0,0 km/h (0 Bft) N 0 0,000 mm 0,0 UV-I 0 W/m -4,1 C -2,7 C 0,0 km/h (0 Bft) 95,65 %
25.10.2021 06:01 -2,6 C -2,2 C 90 % 1026,0 hPa 0,0 l/m 0,0 km/h (0 Bft) N 0 0,000 mm 0,0 UV-I 0 W/m -4,0 C -2,6 C 0,0 km/h (0 Bft) 91,30 %
25.10.2021 06:00 -2,6 C -2,2 C 90 % 1026,0 hPa 0,0 l/m 0,0 km/h (0 Bft) N 0 0,000 mm 0,0 UV-I 0 W/m -4,0 C -2,6 C 0,0 km/h (0 Bft) 100,00 %
25.10.2021 05:59 -2,6 C -2,2 C 90 % 1026,0 hPa 0,0 l/m 0,0 km/h (0 Bft) N 0 0,000 mm 0,0 UV-I 0 W/m -4,0 C -2,6 C 0,0 km/h (0 Bft) 91,30 %
25.10.2021 05:58 -2,6 C -2,2 C 90 % 1025,8 hPa 0,0 l/m 0,0 km/h (0 Bft) N 0 0,000 mm 0,0 UV-I 0 W/m -4,0 C -2,6 C 0,0 km/h (0 Bft) 95,65 %
25.10.2021 05:57 -2,6 C -2,2 C 90 % 1026,0 hPa 0,0 l/m 0,0 km/h (0 Bft) N 0 0,000 mm 0,0 UV-I 0 W/m -4,0 C -2,6 C 0,0 km/h (0 Bft) 95,65 %
25.10.2021 05:56 -2,6 C -2,2 C 90 % 1025,9 hPa 0,0 l/m 0,0 km/h (0 Bft) N 0 0,000 mm 0,0 UV-I 0 W/m -4,0 C -2,6 C 0,0 km/h (0 Bft) 95,65 %
25.10.2021 05:55 -2,6 C -2,2 C 90 % 1025,9 hPa 0,0 l/m 0,0 km/h (0 Bft) N 0 0,000 mm 0,0 UV-I 0 W/m -4,0 C -2,6 C 0,0 km/h (0 Bft) 91,30 %
25.10.2021 05:54 -2,6 C -2,2 C 90 % 1025,9 hPa 0,0 l/m 0,0 km/h (0 Bft) N 0 0,000 mm 0,0 UV-I 0 W/m -4,0 C -2,6 C 0,0 km/h (0 Bft) 95,65 %
25.10.2021 05:53 -2,6 C -2,2 C 90 % 1025,9 hPa 0,0 l/m 0,0 km/h (0 Bft) N 0 0,000 mm 0,0 UV-I 0 W/m -4,0 C -2,6 C 0,0 km/h (0 Bft) 91,30 %
25.10.2021 05:52 -2,6 C -2,2 C 90 % 1025,9 hPa 0,0 l/m 0,0 km/h (0 Bft) N 0 0,000 mm 0,0 UV-I 0 W/m -4,0 C -2,6 C 0,0 km/h (0 Bft) 91,30 %
25.10.2021 05:51 -2,6 C -2,2 C 90 % 1025,9 hPa 0,0 l/m 0,0 km/h (0 Bft) N 0 0,000 mm 0,0 UV-I 0 W/m -4,0 C -2,6 C 0,0 km/h (0 Bft) 95,65 %
25.10.2021 05:50 -2,6 C -2,2 C 90 % 1025,9 hPa 0,0 l/m 0,0 km/h (0 Bft) N 0 0,000 mm 0,0 UV-I 0 W/m -4,0 C -2,6 C 0,0 km/h (0 Bft) 91,30 %
25.10.2021 05:49 -2,6 C -2,2 C 90 % 1025,9 hPa 0,0 l/m 0,0 km/h (0 Bft) N 0 0,000 mm 0,0 UV-I 0 W/m -4,0 C -2,6 C 0,0 km/h (0 Bft) 95,65 %
25.10.2021 05:48 -2,6 C -2,2 C 91 % 1025,9 hPa 0,0 l/m 0,0 km/h (0 Bft) N 0 0,000 mm 0,0 UV-I 0 W/m -3,9 C -2,6 C 0,0 km/h (0 Bft) 95,65 %
25.10.2021 05:47 -2,6 C -2,2 C 91 % 1025,9 hPa 0,0 l/m 0,0 km/h (0 Bft) N 0 0,000 mm 0,0 UV-I 0 W/m -3,9 C -2,6 C 0,0 km/h (0 Bft) 95,65 %
25.10.2021 05:46 -2,6 C -2,2 C 91 % 1025,9 hPa 0,0 l/m 0,0 km/h (0 Bft) N 0 0,000 mm 0,0 UV-I 0 W/m -3,9 C -2,6 C 0,0 km/h (0 Bft) 86,96 %
25.10.2021 05:45 -2,5 C -2,2 C 91 % 1026,0 hPa 0,0 l/m 0,0 km/h (0 Bft) N 0 0,000 mm 0,0 UV-I 0 W/m -3,8 C -2,5 C 0,0 km/h (0 Bft) 91,30 %
25.10.2021 05:44 -2,5 C -2,2 C 91 % 1025,9 hPa 0,0 l/m 0,0 km/h (0 Bft) N 0 0,000 mm 0,0 UV-I 0 W/m -3,8 C -2,5 C 0,0 km/h (0 Bft) 95,65 %
25.10.2021 05:43 -2,6 C -2,2 C 91 % 1026,0 hPa 0,0 l/m 0,0 km/h (0 Bft) N 0 0,000 mm 0,0 UV-I 0 W/m -3,9 C -2,6 C 0,0 km/h (0 Bft) 91,30 %
25.10.2021 05:42 -2,5 C -2,2 C 91 % 1026,0 hPa 0,0 l/m 0,0 km/h (0 Bft) N 0 0,000 mm 0,0 UV-I 0 W/m -3,8 C -2,5 C 0,0 km/h (0 Bft) 100,00 %
25.10.2021 05:41 -2,6 C -1,7 C 91 % 1025,9 hPa 0,0 l/m 0,0 km/h (0 Bft) N 0 0,000 mm 0,0 UV-I 0 W/m -3,9 C -2,6 C 0,0 km/h (0 Bft) 91,30 %
25.10.2021 05:40 -2,5 C -1,7 C 91 % 1025,9 hPa 0,0 l/m 0,0 km/h (0 Bft) N 0 0,000 mm 0,0 UV-I 0 W/m -3,8 C -2,5 C 0,0 km/h (0 Bft) 95,65 %
25.10.2021 05:39 -2,6 C -1,7 C 91 % 1025,9 hPa 0,0 l/m 0,0 km/h (0 Bft) N 0 0,000 mm 0,0 UV-I 0 W/m -3,9 C -2,6 C 0,0 km/h (0 Bft) 91,30 %
25.10.2021 05:38 -2,6 C -2,2 C 90 % 1025,9 hPa 0,0 l/m 0,0 km/h (0 Bft) O-SO 112 0,000 mm 0,0 UV-I 0 W/m -4,0 C -2,6 C 1,6 km/h (1 Bft) 95,65 %
25.10.2021 05:37 -2,6 C -2,2 C 90 % 1025,9 hPa 0,0 l/m 1,6 km/h (1 Bft) O-SO 112 0,000 mm 0,0 UV-I 0 W/m -4,0 C -2,6 C 1,6 km/h (1 Bft) 91,30 %
25.10.2021 05:36 -2,6 C -2,2 C 90 % 1025,9 hPa 0,0 l/m 1,6 km/h (1 Bft) O-SO 112 0,000 mm 0,0 UV-I 0 W/m -4,0 C -2,6 C 3,2 km/h (1 Bft) 95,65 %
25.10.2021 05:35 -2,6 C -2,2 C 90 % 1025,9 hPa 0,0 l/m 1,6 km/h (1 Bft) O-SO 112 0,000 mm 0,0 UV-I 0 W/m -4,0 C -2,6 C 3,2 km/h (1 Bft) 91,30 %
25.10.2021 05:34 -2,6 C -2,2 C 90 % 1025,9 hPa 0,0 l/m 3,2 km/h (1 Bft) O-SO 112 0,000 mm 0,0 UV-I 0 W/m -4,0 C -2,6 C 4,8 km/h (1 Bft) 91,30 %
25.10.2021 05:33 -2,6 C -2,2 C 90 % 1025,9 hPa 0,0 l/m 3,2 km/h (1 Bft) O-SO 112 0,000 mm 0,0 UV-I 0 W/m -4,0 C -2,6 C 3,2 km/h (1 Bft) 95,65 %
25.10.2021 05:32 -2,6 C -2,2 C 91 % 1025,9 hPa 0,0 l/m 3,2 km/h (1 Bft) O-SO 112 0,000 mm 0,0 UV-I 0 W/m -3,9 C -2,6 C 3,2 km/h (1 Bft) 95,65 %
25.10.2021 05:31 -2,6 C -2,2 C 90 % 1025,9 hPa 0,0 l/m 3,2 km/h (1 Bft) O-SO 112 0,000 mm 0,0 UV-I 0 W/m -4,0 C -2,6 C 3,2 km/h (1 Bft) 91,30 %
25.10.2021 05:30 -2,7 C -2,2 C 90 % 1026,0 hPa 0,0 l/m 3,2 km/h (1 Bft) O-SO 112 0,000 mm 0,0 UV-I 0 W/m -4,1 C -2,7 C 3,2 km/h (1 Bft) 91,30 %
25.10.2021 05:29 -2,7 C -2,2 C 90 % 1026,0 hPa 0,0 l/m 3,2 km/h (1 Bft) O-SO 112 0,000 mm 0,0 UV-I 0 W/m -4,1 C -2,7 C 3,2 km/h (1 Bft) 95,65 %
25.10.2021 05:28 -2,7 C -2,2 C 90 % 1025,9 hPa 0,0 l/m 1,6 km/h (1 Bft) O-SO 112 0,000 mm 0,0 UV-I 0 W/m -4,1 C -2,7 C 3,2 km/h (1 Bft) 91,30 %
25.10.2021 05:27 -2,7 C -2,2 C 90 % 1025,9 hPa 0,0 l/m 1,6 km/h (1 Bft) O-SO 112 0,000 mm 0,0 UV-I 0 W/m -4,1 C -2,7 C 3,2 km/h (1 Bft) 91,30 %
25.10.2021 05:26 -2,8 C -2,2 C 90 % 1026,0 hPa 0,0 l/m 3,2 km/h (1 Bft) O-SO 112 0,000 mm 0,0 UV-I 0 W/m -4,2 C -2,8 C 3,2 km/h (1 Bft) 95,65 %
25.10.2021 05:25 -2,8 C -2,2 C 90 % 1025,9 hPa 0,0 l/m 3,2 km/h (1 Bft) O-SO 112 0,000 mm 0,0 UV-I 0 W/m -4,2 C -2,8 C 4,8 km/h (1 Bft) 95,65 %
25.10.2021 05:24 -2,8 C -2,2 C 90 % 1025,9 hPa 0,0 l/m 1,6 km/h (1 Bft) O-SO 112 0,000 mm 0,0 UV-I 0 W/m -4,2 C -2,8 C 3,2 km/h (1 Bft) 91,30 %
25.10.2021 05:23 -2,8 C -2,2 C 90 % 1026,0 hPa 0,0 l/m 0,0 km/h (0 Bft) O-SO 112 0,000 mm 0,0 UV-I 0 W/m -4,2 C -2,8 C 1,6 km/h (1 Bft) 95,65 %
25.10.2021 05:22 -2,8 C -2,2 C 90 % 1026,0 hPa 0,0 l/m 1,6 km/h (1 Bft) O-SO 112 0,000 mm 0,0 UV-I 0 W/m -4,2 C -2,8 C 1,6 km/h (1 Bft) 91,30 %
25.10.2021 05:21 -2,8 C -2,2 C 90 % 1026,0 hPa 0,0 l/m 1,6 km/h (1 Bft) O-SO 112 0,000 mm 0,0 UV-I 0 W/m -4,2 C -2,8 C 1,6 km/h (1 Bft) 86,96 %
25.10.2021 05:20 -2,9 C -1,7 C 90 % 1026,0 hPa 0,0 l/m 1,6 km/h (1 Bft) O-SO 112 0,000 mm 0,0 UV-I 0 W/m -4,3 C -2,9 C 3,2 km/h (1 Bft) 100,00 %
25.10.2021 05:19 -2,9 C -2,2 C 90 % 1026,0 hPa 0,0 l/m 1,6 km/h (1 Bft) O-SO 112 0,000 mm 0,0 UV-I 0 W/m -4,3 C -2,9 C 3,2 km/h (1 Bft) 95,65 %
25.10.2021 05:18 -2,9 C -2,2 C 90 % 1026,0 hPa 0,0 l/m 3,2 km/h (1 Bft) O-SO 112 0,000 mm 0,0 UV-I 0 W/m -4,3 C -2,9 C 4,8 km/h (1 Bft) 91,30 %
25.10.2021 05:17 -2,9 C -2,2 C 90 % 1026,0 hPa 0,0 l/m 3,2 km/h (1 Bft) O-SO 112 0,000 mm 0,0 UV-I 0 W/m -4,3 C -2,9 C 3,2 km/h (1 Bft) 100,00 %
25.10.2021 05:16 -2,8 C -1,7 C 90 % 1026,0 hPa 0,0 l/m 3,2 km/h (1 Bft) O-SO 112 0,000 mm 0,0 UV-I 0 W/m -4,2 C -2,8 C 4,8 km/h (1 Bft) 95,65 %
25.10.2021 05:15 -2,8 C -2,2 C 90 % 1026,0 hPa 0,0 l/m 3,2 km/h (1 Bft) O-SO 112 0,000 mm 0,0 UV-I 0 W/m -4,2 C -2,8 C 3,2 km/h (1 Bft) 95,65 %
25.10.2021 05:14 -2,8 C -2,2 C 90 % 1026,0 hPa 0,0 l/m 3,2 km/h (1 Bft) O-SO 112 0,000 mm 0,0 UV-I 0 W/m -4,2 C -2,8 C 4,8 km/h (1 Bft) 100,00 %
25.10.2021 05:13 -2,9 C -2,2 C 90 % 1026,0 hPa 0,0 l/m 3,2 km/h (1 Bft) O-SO 112 0,000 mm 0,0 UV-I 0 W/m -4,3 C -2,9 C 3,2 km/h (1 Bft) 95,65 %
25.10.2021 05:12 -2,9 C -2,2 C 90 % 1026,0 hPa 0,0 l/m 3,2 km/h (1 Bft) O-SO 112 0,000 mm 0,0 UV-I 0 W/m -4,3 C -2,9 C 3,2 km/h (1 Bft) 91,30 %
25.10.2021 05:11 -2,9 C -2,2 C 90 % 1026,0 hPa 0,0 l/m 1,6 km/h (1 Bft) O-SO 112 0,000 mm 0,0 UV-I 0 W/m -4,3 C -2,9 C 3,2 km/h (1 Bft) 100,00 %
25.10.2021 05:10 -2,9 C -2,2 C 90 % 1026,0 hPa 0,0 l/m 0,0 km/h (0 Bft) O-SO 112 0,000 mm 0,0 UV-I 0 W/m -4,3 C -2,9 C 1,6 km/h (1 Bft) 91,30 %
25.10.2021 05:09 -2,9 C -2,2 C 90 % 1026,0 hPa 0,0 l/m 0,0 km/h (0 Bft) N 0 0,000 mm 0,0 UV-I 0 W/m -4,3 C -2,9 C 0,0 km/h (0 Bft) 95,65 %
25.10.2021 05:08 -2,9 C -2,2 C 90 % 1026,0 hPa 0,0 l/m 0,0 km/h (0 Bft) N 0 0,000 mm 0,0 UV-I 0 W/m -4,3 C -2,9 C 0,0 km/h (0 Bft) 95,65 %
25.10.2021 05:07 -2,9 C -2,2 C 90 % 1026,0 hPa 0,0 l/m 0,0 km/h (0 Bft) O-SO 112 0,000 mm 0,0 UV-I 0 W/m -4,3 C -2,9 C 1,6 km/h (1 Bft) 95,65 %
25.10.2021 05:06 -2,9 C -2,2 C 90 % 1026,0 hPa 0,0 l/m 0,0 km/h (0 Bft) O-SO 112 0,000 mm 0,0 UV-I 0 W/m -4,3 C -2,9 C 1,6 km/h (1 Bft) 95,65 %
25.10.2021 05:05 -2,9 C -2,2 C 90 % 1026,0 hPa 0,0 l/m 1,6 km/h (1 Bft) O-SO 112 0,000 mm 0,0 UV-I 0 W/m -4,3 C -2,9 C 1,6 km/h (1 Bft) 95,65 %
25.10.2021 05:04 -2,9 C -2,2 C 90 % 1026,0 hPa 0,0 l/m 0,0 km/h (0 Bft) O-SO 112 0,000 mm 0,0 UV-I 0 W/m -4,3 C -2,9 C 1,6 km/h (1 Bft) 91,30 %
25.10.2021 05:03 -2,9 C -2,2 C 90 % 1025,9 hPa 0,0 l/m 0,0 km/h (0 Bft) N 0 0,000 mm 0,0 UV-I 0 W/m -4,3 C -2,9 C 0,0 km/h (0 Bft) 95,65 %
25.10.2021 05:02 -2,9 C -2,2 C 90 % 1026,0 hPa 0,0 l/m 0,0 km/h (0 Bft) O-SO 112 0,000 mm 0,0 UV-I 0 W/m -4,3 C -2,9 C 1,6 km/h (1 Bft) 95,65 %
25.10.2021 05:01 -2,9 C -1,7 C 90 % 1026,0 hPa 0,0 l/m 1,6 km/h (1 Bft) O-SO 112 0,000 mm 0,0 UV-I 0 W/m -4,3 C -2,9 C 3,2 km/h (1 Bft) 91,30 %
25.10.2021 05:00 -2,9 C -2,2 C 90 % 1026,0 hPa 0,0 l/m 0,0 km/h (0 Bft) O-SO 112 0,000 mm 0,0 UV-I 0 W/m -4,3 C -2,9 C 1,6 km/h (1 Bft) 95,65 %
25.10.2021 04:59 -2,9 C -2,2 C 89 % 1026,0 hPa 0,0 l/m 0,0 km/h (0 Bft) O-SO 112 0,000 mm 0,0 UV-I 0 W/m -4,5 C -2,9 C 1,6 km/h (1 Bft) 100,00 %
25.10.2021 04:58 -3,0 C -2,2 C 89 % 1026,0 hPa 0,0 l/m 0,0 km/h (0 Bft) N 0 0,000 mm 0,0 UV-I 0 W/m -4,6 C -3,0 C 0,0 km/h (0 Bft) 95,65 %
25.10.2021 04:57 -3,0 C -2,2 C 89 % 1026,1 hPa 0,0 l/m 0,0 km/h (0 Bft) O-SO 112 0,000 mm 0,0 UV-I 0 W/m -4,6 C -3,0 C 1,6 km/h (1 Bft) 91,30 %
25.10.2021 04:56 -3,0 C -2,2 C 89 % 1026,0 hPa 0,0 l/m 0,0 km/h (0 Bft) O-SO 112 0,000 mm 0,0 UV-I 0 W/m -4,6 C -3,0 C 1,6 km/h (1 Bft) 95,65 %
25.10.2021 04:55 -2,9 C -2,2 C 89 % 1026,1 hPa 0,0 l/m 0,0 km/h (0 Bft) N 0 0,000 mm 0,0 UV-I 0 W/m -4,5 C -2,9 C 0,0 km/h (0 Bft) 95,65 %
25.10.2021 04:54 -2,9 C -2,2 C 89 % 1026,0 hPa 0,0 l/m 0,0 km/h (0 Bft) N 0 0,000 mm 0,0 UV-I 0 W/m -4,5 C -2,9 C 0,0 km/h (0 Bft) 95,65 %
25.10.2021 04:53 -3,0 C -2,2 C 89 % 1026,1 hPa 0,0 l/m 0,0 km/h (0 Bft) O-SO 112 0,000 mm 0,0 UV-I 0 W/m -4,6 C -3,0 C 1,6 km/h (1 Bft) 95,65 %
25.10.2021 04:52 -3,0 C -2,2 C 89 % 1026,1 hPa 0,0 l/m 1,6 km/h (1 Bft) O-SO 112 0,000 mm 0,0 UV-I 0 W/m -4,6 C -3,0 C 3,2 km/h (1 Bft) 100,00 %
25.10.2021 04:51 -2,9 C -2,2 C 89 % 1026,1 hPa 0,0 l/m 3,2 km/h (1 Bft) O-SO 112 0,000 mm 0,0 UV-I 0 W/m -4,5 C -2,9 C 3,2 km/h (1 Bft) 91,30 %
25.10.2021 04:50 -3,0 C -2,2 C 89 % 1026,1 hPa 0,0 l/m 3,2 km/h (1 Bft) O-SO 112 0,000 mm 0,0 UV-I 0 W/m -4,6 C -3,0 C 3,2 km/h (1 Bft) 95,65 %
25.10.2021 04:49 -2,9 C -2,2 C 89 % 1026,0 hPa 0,0 l/m 3,2 km/h (1 Bft) O-SO 112 0,000 mm 0,0 UV-I 0 W/m -4,5 C -2,9 C 3,2 km/h (1 Bft) 95,65 %
25.10.2021 04:48 -2,9 C -2,2 C 89 % 1026,0 hPa 0,0 l/m 1,6 km/h (1 Bft) O-SO 112 0,000 mm 0,0 UV-I 0 W/m -4,5 C -2,9 C 3,2 km/h (1 Bft) 95,65 %
25.10.2021 04:47 -3,0 C -2,2 C 89 % 1026,0 hPa 0,0 l/m 1,6 km/h (1 Bft) O-SO 112 0,000 mm 0,0 UV-I 0 W/m -4,6 C -3,0 C 1,6 km/h (1 Bft) 86,96 %
25.10.2021 04:46 -2,9 C -2,2 C 89 % 1026,0 hPa 0,0 l/m 1,6 km/h (1 Bft) O-SO 112 0,000 mm 0,0 UV-I 0 W/m -4,5 C -2,9 C 3,2 km/h (1 Bft) 91,30 %
25.10.2021 04:45 -3,0 C -2,2 C 89 % 1026,0 hPa 0,0 l/m 1,6 km/h (1 Bft) O-SO 112 0,000 mm 0,0 UV-I 0 W/m -4,6 C -3,0 C 3,2 km/h (1 Bft) 95,65 %
25.10.2021 04:44 -2,9 C -2,2 C 89 % 1026,0 hPa 0,0 l/m 1,6 km/h (1 Bft) O-SO 112 0,000 mm 0,0 UV-I 0 W/m -4,5 C -2,9 C 3,2 km/h (1 Bft) 91,30 %
25.10.2021 04:43 -3,0 C -2,2 C 89 % 1026,1 hPa 0,0 l/m 1,6 km/h (1 Bft) O-SO 112 0,000 mm 0,0 UV-I 0 W/m -4,6 C -3,0 C 1,6 km/h (1 Bft) 100,00 %
25.10.2021 04:42 -2,9 C -2,2 C 89 % 1026,1 hPa 0,0 l/m 0,0 km/h (0 Bft) O-SO 112 0,000 mm 0,0 UV-I 0 W/m -4,5 C -2,9 C 1,6 km/h (1 Bft) 91,30 %
25.10.2021 04:41 -2,9 C -2,2 C 89 % 1026,1 hPa 0,0 l/m 1,6 km/h (1 Bft) O-SO 112 0,000 mm 0,0 UV-I 0 W/m -4,5 C -2,9 C 1,6 km/h (1 Bft) 95,65 %
25.10.2021 04:40 -3,0 C -2,2 C 89 % 1026,1 hPa 0,0 l/m 1,6 km/h (1 Bft) O-SO 112 0,000 mm 0,0 UV-I 0 W/m -4,6 C -3,0 C 1,6 km/h (1 Bft) 95,65 %
25.10.2021 04:39 -3,0 C -2,2 C 89 % 1026,1 hPa 0,0 l/m 1,6 km/h (1 Bft) O-SO 112 0,000 mm 0,0 UV-I 0 W/m -4,6 C -3,0 C 3,2 km/h (1 Bft) 95,65 %
25.10.2021 04:38 -3,0 C -2,2 C 89 % 1026,1 hPa 0,0 l/m 0,0 km/h (0 Bft) O-SO 112 0,000 mm 0,0 UV-I 0 W/m -4,6 C -3,0 C 1,6 km/h (1 Bft) 86,96 %
25.10.2021 04:37 -3,1 C -2,2 C 89 % 1026,1 hPa 0,0 l/m 0,0 km/h (0 Bft) N 0 0,000 mm 0,0 UV-I 0 W/m -4,6 C -3,1 C 0,0 km/h (0 Bft) 100,00 %
25.10.2021 04:36 -3,0 C -2,2 C 89 % 1026,1 hPa 0,0 l/m 0,0 km/h (0 Bft) N 0 0,000 mm 0,0 UV-I 0 W/m -4,6 C -3,0 C 0,0 km/h (0 Bft) 91,30 %
25.10.2021 04:35 -3,1 C -2,2 C 89 % 1026,1 hPa 0,0 l/m 0,0 km/h (0 Bft) O-SO 112 0,000 mm 0,0 UV-I 0 W/m -4,6 C -3,1 C 1,6 km/h (1 Bft) 91,30 %
25.10.2021 04:34 -3,0 C -2,2 C 89 % 1026,1 hPa 0,0 l/m 0,0 km/h (0 Bft) O-SO 112 0,000 mm 0,0 UV-I 0 W/m -4,6 C -3,0 C 1,6 km/h (1 Bft) 95,65 %
25.10.2021 04:33 -3,0 C -2,2 C 89 % 1026,1 hPa 0,0 l/m 1,6 km/h (1 Bft) O-SO 112 0,000 mm 0,0 UV-I 0 W/m -4,6 C -3,0 C 1,6 km/h (1 Bft) 91,30 %
25.10.2021 04:32 -3,0 C -2,2 C 89 % 1026,1 hPa 0,0 l/m 1,6 km/h (1 Bft) O-SO 112 0,000 mm 0,0 UV-I 0 W/m -4,6 C -3,0 C 1,6 km/h (1 Bft) 86,96 %
25.10.2021 04:31 -3,0 C -2,2 C 89 % 1026,1 hPa 0,0 l/m 0,0 km/h (0 Bft) O-SO 112 0,000 mm 0,0 UV-I 0 W/m -4,6 C -3,0 C 1,6 km/h (1 Bft) 95,65 %
25.10.2021 04:30 -3,0 C -2,2 C 89 % 1026,1 hPa 0,0 l/m 1,6 km/h (1 Bft) O-SO 112 0,000 mm 0,0 UV-I 0 W/m -4,6 C -3,0 C 1,6 km/h (1 Bft) 95,65 %
25.10.2021 04:29 -3,0 C -2,2 C 89 % 1026,1 hPa 0,0 l/m 1,6 km/h (1 Bft) O-SO 112 0,000 mm 0,0 UV-I 0 W/m -4,6 C -3,0 C 1,6 km/h (1 Bft) 86,96 %
25.10.2021 04:28 -2,9 C -2,2 C 89 % 1026,1 hPa 0,0 l/m 1,6 km/h (1 Bft) O-SO 112 0,000 mm 0,0 UV-I 0 W/m -4,5 C -2,9 C 1,6 km/h (1 Bft) 100,00 %
25.10.2021 04:27 -2,9 C -2,2 C 89 % 1026,1 hPa 0,0 l/m 1,6 km/h (1 Bft) O-SO 112 0,000 mm 0,0 UV-I 0 W/m -4,5 C -2,9 C 3,2 km/h (1 Bft) 91,30 %
25.10.2021 04:26 -2,9 C -2,2 C 89 % 1026,1 hPa 0,0 l/m 1,6 km/h (1 Bft) O-SO 112 0,000 mm 0,0 UV-I 0 W/m -4,5 C -2,9 C 3,2 km/h (1 Bft) 95,65 %
25.10.2021 04:25 -2,9 C -2,2 C 89 % 1026,1 hPa 0,0 l/m 1,6 km/h (1 Bft) O-SO 112 0,000 mm 0,0 UV-I 0 W/m -4,5 C -2,9 C 3,2 km/h (1 Bft) 95,65 %
25.10.2021 04:24 -2,9 C -2,2 C 89 % 1026,1 hPa 0,0 l/m 1,6 km/h (1 Bft) O-SO 112 0,000 mm 0,0 UV-I 0 W/m -4,5 C -2,9 C 1,6 km/h (1 Bft) 95,65 %
25.10.2021 04:23 -2,9 C -2,2 C 89 % 1026,1 hPa 0,0 l/m 1,6 km/h (1 Bft) O-SO 112 0,000 mm 0,0 UV-I 0 W/m -4,5 C -2,9 C 1,6 km/h (1 Bft) 95,65 %
25.10.2021 04:22 -2,9 C -2,2 C 89 % 1026,1 hPa 0,0 l/m 3,2 km/h (1 Bft) O-SO 112 0,000 mm 0,0 UV-I 0 W/m -4,5 C -2,9 C 3,2 km/h (1 Bft) 95,65 %
25.10.2021 04:21 -2,9 C -2,2 C 89 % 1026,2 hPa 0,0 l/m 1,6 km/h (1 Bft) O-SO 112 0,000 mm 0,0 UV-I 0 W/m -4,5 C -2,9 C 3,2 km/h (1 Bft) 86,96 %
25.10.2021 04:20 -2,9 C -2,2 C 89 % 1026,1 hPa 0,0 l/m 1,6 km/h (1 Bft) O-SO 112 0,000 mm 0,0 UV-I 0 W/m -4,5 C -2,9 C 3,2 km/h (1 Bft) 91,30 %
25.10.2021 04:19 -2,9 C -2,2 C 89 % 1026,2 hPa 0,0 l/m 1,6 km/h (1 Bft) O-SO 112 0,000 mm 0,0 UV-I 0 W/m -4,5 C -2,9 C 3,2 km/h (1 Bft) 100,00 %
25.10.2021 04:18 -2,9 C -2,2 C 89 % 1026,2 hPa 0,0 l/m 1,6 km/h (1 Bft) O-SO 112 0,000 mm 0,0 UV-I 0 W/m -4,5 C -2,9 C 3,2 km/h (1 Bft) 91,30 %
25.10.2021 04:17 -2,9 C -2,2 C 89 % 1026,2 hPa 0,0 l/m 1,6 km/h (1 Bft) O-SO 112 0,000 mm 0,0 UV-I 0 W/m -4,5 C -2,9 C 3,2 km/h (1 Bft) 95,65 %
25.10.2021 04:16 -2,9 C -2,2 C 89 % 1026,2 hPa 0,0 l/m 1,6 km/h (1 Bft) O-SO 112 0,000 mm 0,0 UV-I 0 W/m -4,5 C -2,9 C 3,2 km/h (1 Bft) 100,00 %
25.10.2021 04:15 -2,9 C -2,2 C 89 % 1026,1 hPa 0,0 l/m 1,6 km/h (1 Bft) O-SO 112 0,000 mm 0,0 UV-I 0 W/m -4,5 C -2,9 C 1,6 km/h (1 Bft) 91,30 %
25.10.2021 04:14 -2,8 C -2,2 C 89 % 1026,2 hPa 0,0 l/m 1,6 km/h (1 Bft) O-SO 112 0,000 mm 0,0 UV-I 0 W/m -4,4 C -2,8 C 1,6 km/h (1 Bft) 95,65 %
25.10.2021 04:13 -2,8 C -2,2 C 89 % 1026,2 hPa 0,0 l/m 1,6 km/h (1 Bft) O-SO 112 0,000 mm 0,0 UV-I 0 W/m -4,4 C -2,8 C 3,2 km/h (1 Bft) 91,30 %
25.10.2021 04:12 -2,8 C -2,8 C 88 % 1026,1 hPa 0,0 l/m 0,0 km/h (0 Bft) O-SO 112 0,000 mm 0,0 UV-I 0 W/m -4,5 C -2,8 C 1,6 km/h (1 Bft) 100,00 %
25.10.2021 04:11 -2,8 C -2,2 C 88 % 1026,1 hPa 0,0 l/m 0,0 km/h (0 Bft) N 0 0,000 mm 0,0 UV-I 0 W/m -4,5 C -2,8 C 0,0 km/h (0 Bft) 91,30 %
25.10.2021 04:10 -2,8 C -2,2 C 89 % 1026,2 hPa 0,0 l/m 0,0 km/h (0 Bft) O-SO 112 0,000 mm 0,0 UV-I 0 W/m -4,4 C -2,8 C 1,6 km/h (1 Bft) 95,65 %
25.10.2021 04:09 -2,8 C -2,2 C 89 % 1026,2 hPa 0,0 l/m 1,6 km/h (1 Bft) O-SO 112 0,000 mm 0,0 UV-I 0 W/m -4,4 C -2,8 C 1,6 km/h (1 Bft) 95,65 %
25.10.2021 04:08 -2,8 C -2,2 C 89 % 1026,2 hPa 0,0 l/m 1,6 km/h (1 Bft) O-SO 112 0,000 mm 0,0 UV-I 0 W/m -4,4 C -2,8 C 1,6 km/h (1 Bft) 91,30 %
25.10.2021 04:07 -2,8 C -2,2 C 89 % 1026,2 hPa 0,0 l/m 1,6 km/h (1 Bft) O-SO 112 0,000 mm 0,0 UV-I 0 W/m -4,4 C -2,8 C 3,2 km/h (1 Bft) 95,65 %
25.10.2021 04:06 -2,7 C -2,2 C 89 % 1026,3 hPa 0,0 l/m 1,6 km/h (1 Bft) O-SO 112 0,000 mm 0,0 UV-I 0 W/m -4,3 C -2,7 C 3,2 km/h (1 Bft) 100,00 %
25.10.2021 04:05 -2,7 C -2,2 C 88 % 1026,3 hPa 0,0 l/m 1,6 km/h (1 Bft) O-SO 112 0,000 mm 0,0 UV-I 0 W/m -4,4 C -2,7 C 3,2 km/h (1 Bft) 95,65 %
25.10.2021 04:04 -2,7 C -2,2 C 89 % 1026,2 hPa 0,0 l/m 1,6 km/h (1 Bft) O-SO 112 0,000 mm 0,0 UV-I 0 W/m -4,3 C -2,7 C 3,2 km/h (1 Bft) 95,65 %
25.10.2021 04:03 -2,7 C -2,2 C 89 % 1026,2 hPa 0,0 l/m 1,6 km/h (1 Bft) O-SO 112 0,000 mm 0,0 UV-I 0 W/m -4,3 C -2,7 C 3,2 km/h (1 Bft) 95,65 %
25.10.2021 04:02 -2,7 C -2,2 C 88 % 1026,3 hPa 0,0 l/m 1,6 km/h (1 Bft) O-SO 112 0,000 mm 0,0 UV-I 0 W/m -4,4 C -2,7 C 3,2 km/h (1 Bft) 95,65 %
25.10.2021 04:01 -2,7 C -2,2 C 89 % 1026,3 hPa 0,0 l/m 1,6 km/h (1 Bft) O-SO 112 0,000 mm 0,0 UV-I 0 W/m -4,3 C -2,7 C 3,2 km/h (1 Bft) 86,96 %
25.10.2021 04:00 -2,7 C -2,2 C 89 % 1026,3 hPa 0,0 l/m 1,6 km/h (1 Bft) O-SO 112 0,000 mm 0,0 UV-I 0 W/m -4,3 C -2,7 C 1,6 km/h (1 Bft) 100,00 %
25.10.2021 03:59 -2,7 C -2,2 C 89 % 1026,3 hPa 0,0 l/m 1,6 km/h (1 Bft) O-SO 112 0,000 mm 0,0 UV-I 0 W/m -4,3 C -2,7 C 3,2 km/h (1 Bft) 86,96 %
25.10.2021 03:58 -2,7 C -2,2 C 89 % 1026,4 hPa 0,0 l/m 1,6 km/h (1 Bft) O-SO 112 0,000 mm 0,0 UV-I 0 W/m -4,3 C -2,7 C 3,2 km/h (1 Bft) 91,30 %
25.10.2021 03:57 -2,7 C -2,2 C 89 % 1026,4 hPa 0,0 l/m 1,6 km/h (1 Bft) O-SO 112 0,000 mm 0,0 UV-I 0 W/m -4,3 C -2,7 C 3,2 km/h (1 Bft) 95,65 %
25.10.2021 03:56 -2,6 C -2,2 C 89 % 1026,4 hPa 0,0 l/m 1,6 km/h (1 Bft) O-SO 112 0,000 mm 0,0 UV-I 0 W/m -4,2 C -2,6 C 3,2 km/h (1 Bft) 95,65 %
25.10.2021 03:55 -2,7 C -2,2 C 88 % 1026,4 hPa 0,0 l/m 0,0 km/h (0 Bft) N 0 0,000 mm 0,0 UV-I 0 W/m -4,4 C -2,7 C 0,0 km/h (0 Bft) 86,96 %
25.10.2021 03:54 -2,7 C -2,2 C 88 % 1026,4 hPa 0,0 l/m 0,0 km/h (0 Bft) O-SO 112 0,000 mm 0,0 UV-I 0 W/m -4,4 C -2,7 C 1,6 km/h (1 Bft) 95,65 %
25.10.2021 03:53 -2,7 C -2,2 C 88 % 1026,4 hPa 0,0 l/m 1,6 km/h (1 Bft) O-SO 112 0,000 mm 0,0 UV-I 0 W/m -4,4 C -2,7 C 1,6 km/h (1 Bft) 91,30 %
25.10.2021 03:52 -2,7 C -2,2 C 88 % 1026,3 hPa 0,0 l/m 1,6 km/h (1 Bft) O-SO 112 0,000 mm 0,0 UV-I 0 W/m -4,4 C -2,7 C 1,6 km/h (1 Bft) 91,30 %
25.10.2021 03:51 -2,6 C -2,2 C 88 % 1026,4 hPa 0,0 l/m 1,6 km/h (1 Bft) O-SO 112 0,000 mm 0,0 UV-I 0 W/m -4,3 C -2,6 C 3,2 km/h (1 Bft) 95,65 %
25.10.2021 03:50 -2,7 C -2,2 C 88 % 1026,3 hPa 0,0 l/m 1,6 km/h (1 Bft) O-SO 112 0,000 mm 0,0 UV-I 0 W/m -4,4 C -2,7 C 3,2 km/h (1 Bft) 91,30 %
25.10.2021 03:49 -2,7 C -2,2 C 88 % 1026,3 hPa 0,0 l/m 1,6 km/h (1 Bft) O-SO 112 0,000 mm 0,0 UV-I 0 W/m -4,4 C -2,7 C 3,2 km/h (1 Bft) 95,65 %
25.10.2021 03:48 -2,7 C -2,2 C 88 % 1026,4 hPa 0,0 l/m 0,0 km/h (0 Bft) O-SO 112 0,000 mm 0,0 UV-I 0 W/m -4,4 C -2,7 C 1,6 km/h (1 Bft) 95,65 %
25.10.2021 03:47 -2,6 C -2,2 C 88 % 1026,3 hPa 0,0 l/m 0,0 km/h (0 Bft) O-SO 112 0,000 mm 0,0 UV-I 0 W/m -4,3 C -2,6 C 1,6 km/h (1 Bft) 95,65 %
25.10.2021 03:46 -2,6 C -2,2 C 88 % 1026,3 hPa 0,0 l/m 0,0 km/h (0 Bft) O-SO 112 0,000 mm 0,0 UV-I 0 W/m -4,3 C -2,6 C 1,6 km/h (1 Bft) 86,96 %
25.10.2021 03:45 -2,6 C -2,2 C 88 % 1026,3 hPa 0,0 l/m 0,0 km/h (0 Bft) O-SO 112 0,000 mm 0,0 UV-I 0 W/m -4,3 C -2,6 C 1,6 km/h (1 Bft) 100,00 %
25.10.2021 03:44 -2,6 C -2,2 C 88 % 1026,4 hPa 0,0 l/m 1,6 km/h (1 Bft) O-SO 112 0,000 mm 0,0 UV-I 0 W/m -4,3 C -2,6 C 1,6 km/h (1 Bft) 91,30 %
25.10.2021 03:43 -2,6 C -2,2 C 88 % 1026,4 hPa 0,0 l/m 1,6 km/h (1 Bft) O-SO 112 0,000 mm 0,0 UV-I 0 W/m -4,3 C -2,6 C 1,6 km/h (1 Bft) 95,65 %
25.10.2021 03:42 -2,6 C -2,2 C 88 % 1026,4 hPa 0,0 l/m 1,6 km/h (1 Bft) O-SO 112 0,000 mm 0,0 UV-I 0 W/m -4,3 C -2,6 C 1,6 km/h (1 Bft) 91,30 %
25.10.2021 03:41 -2,6 C -2,2 C 88 % 1026,4 hPa 0,0 l/m 1,6 km/h (1 Bft) O-SO 112 0,000 mm 0,0 UV-I 0 W/m -4,3 C -2,6 C 1,6 km/h (1 Bft) 91,30 %
25.10.2021 03:40 -2,6 C -2,2 C 88 % 1026,4 hPa 0,0 l/m 1,6 km/h (1 Bft) O-SO 112 0,000 mm 0,0 UV-I 0 W/m -4,3 C -2,6 C 3,2 km/h (1 Bft) 95,65 %
25.10.2021 03:39 -2,6 C -2,2 C 88 % 1026,4 hPa 0,0 l/m 1,6 km/h (1 Bft) O-SO 112 0,000 mm 0,0 UV-I 0 W/m -4,3 C -2,6 C 1,6 km/h (1 Bft) 95,65 %
25.10.2021 03:38 -2,5 C -2,2 C 88 % 1026,4 hPa 0,0 l/m 1,6 km/h (1 Bft) O-SO 112 0,000 mm 0,0 UV-I 0 W/m -4,2 C -2,5 C 3,2 km/h (1 Bft) 95,65 %
25.10.2021 03:37 -2,5 C -2,2 C 88 % 1026,4 hPa 0,0 l/m 1,6 km/h (1 Bft) O-SO 112 0,000 mm 0,0 UV-I 0 W/m -4,2 C -2,5 C 3,2 km/h (1 Bft) 91,30 %
25.10.2021 03:36 -2,5 C -2,2 C 88 % 1026,4 hPa 0,0 l/m 0,0 km/h (0 Bft) N 0 0,000 mm 0,0 UV-I 0 W/m -4,2 C -2,5 C 0,0 km/h (0 Bft) 100,00 %
25.10.2021 03:35 -2,4 C -2,2 C 88 % 1026,4 hPa 0,0 l/m 0,0 km/h (0 Bft) N 0 0,000 mm 0,0 UV-I 0 W/m -4,1 C -2,4 C 0,0 km/h (0 Bft) 91,30 %
25.10.2021 03:34 -2,5 C -2,2 C 88 % 1026,4 hPa 0,0 l/m 0,0 km/h (0 Bft) N 0 0,000 mm 0,0 UV-I 0 W/m -4,2 C -2,5 C 0,0 km/h (0 Bft) 91,30 %
25.10.2021 03:33 -2,4 C -2,2 C 88 % 1026,4 hPa 0,0 l/m 0,0 km/h (0 Bft) N 0 0,000 mm 0,0 UV-I 0 W/m -4,1 C -2,4 C 0,0 km/h (0 Bft) 95,65 %
25.10.2021 03:32 -2,4 C -2,2 C 88 % 1026,4 hPa 0,0 l/m 0,0 km/h (0 Bft) N 0 0,000 mm 0,0 UV-I 0 W/m -4,1 C -2,4 C 0,0 km/h (0 Bft) 95,65 %
25.10.2021 03:31 -2,4 C -2,2 C 88 % 1026,4 hPa 0,0 l/m 0,0 km/h (0 Bft) N 0 0,000 mm 0,0 UV-I 0 W/m -4,1 C -2,4 C 0,0 km/h (0 Bft) 86,96 %
25.10.2021 03:30 -2,4 C -2,2 C 88 % 1026,4 hPa 0,0 l/m 0,0 km/h (0 Bft) N 0 0,000 mm 0,0 UV-I 0 W/m -4,1 C -2,4 C 0,0 km/h (0 Bft) 95,65 %
25.10.2021 03:29 -2,4 C -2,2 C 88 % 1026,4 hPa 0,0 l/m 0,0 km/h (0 Bft) N 0 0,000 mm 0,0 UV-I 0 W/m -4,1 C -2,4 C 0,0 km/h (0 Bft) 95,65 %
25.10.2021 03:28 -2,4 C -2,2 C 88 % 1026,4 hPa 0,0 l/m 0,0 km/h (0 Bft) N 0 0,000 mm 0,0 UV-I 0 W/m -4,1 C -2,4 C 0,0 km/h (0 Bft) 95,65 %
25.10.2021 03:27 -2,4 C -2,2 C 88 % 1026,3 hPa 0,0 l/m 0,0 km/h (0 Bft) N 0 0,000 mm 0,0 UV-I 0 W/m -4,1 C -2,4 C 0,0 km/h (0 Bft) 95,65 %
25.10.2021 03:26 -2,4 C -2,2 C 88 % 1026,3 hPa 0,0 l/m 0,0 km/h (0 Bft) O-SO 112 0,000 mm 0,0 UV-I 0 W/m -4,1 C -2,4 C 1,6 km/h (1 Bft) 95,65 %
25.10.2021 03:25 -2,4 C -2,2 C 88 % 1026,4 hPa 0,0 l/m 0,0 km/h (0 Bft) O-SO 112 0,000 mm 0,0 UV-I 0 W/m -4,1 C -2,4 C 1,6 km/h (1 Bft) 91,30 %
25.10.2021 03:24 -2,4 C -2,2 C 88 % 1026,4 hPa 0,0 l/m 0,0 km/h (0 Bft) O-SO 112 0,000 mm 0,0 UV-I 0 W/m -4,1 C -2,4 C 1,6 km/h (1 Bft) 95,65 %
25.10.2021 03:23 -2,4 C -2,2 C 88 % 1026,4 hPa 0,0 l/m 1,6 km/h (1 Bft) O-SO 112 0,000 mm 0,0 UV-I 0 W/m -4,1 C -2,4 C 1,6 km/h (1 Bft) 86,96 %
25.10.2021 03:22 -2,3 C -2,2 C 88 % 1026,4 hPa 0,0 l/m 0,0 km/h (0 Bft) O-SO 112 0,000 mm 0,0 UV-I 0 W/m -4,0 C -2,3 C 1,6 km/h (1 Bft) 91,30 %
25.10.2021 03:21 -2,3 C -2,2 C 88 % 1026,4 hPa 0,0 l/m 0,0 km/h (0 Bft) N 0 0,000 mm 0,0 UV-I 0 W/m -4,0 C -2,3 C 0,0 km/h (0 Bft) 91,30 %
25.10.2021 03:20 -2,3 C -2,2 C 88 % 1026,4 hPa 0,0 l/m 0,0 km/h (0 Bft) N 0 0,000 mm 0,0 UV-I 0 W/m -4,0 C -2,3 C 0,0 km/h (0 Bft) 100,00 %
25.10.2021 03:19 -2,3 C -2,2 C 88 % 1026,5 hPa 0,0 l/m 0,0 km/h (0 Bft) N 0 0,000 mm 0,0 UV-I 0 W/m -4,0 C -2,3 C 0,0 km/h (0 Bft) 91,30 %
25.10.2021 03:18 -2,3 C -2,2 C 88 % 1026,4 hPa 0,0 l/m 0,0 km/h (0 Bft) O-SO 112 0,000 mm 0,0 UV-I 0 W/m -4,0 C -2,3 C 1,6 km/h (1 Bft) 95,65 %
25.10.2021 03:17 -2,3 C -2,2 C 88 % 1026,5 hPa 0,0 l/m 0,0 km/h (0 Bft) N 0 0,000 mm 0,0 UV-I 0 W/m -4,0 C -2,3 C 0,0 km/h (0 Bft) 95,65 %
25.10.2021 03:16 -2,3 C -2,2 C 88 % 1026,5 hPa 0,0 l/m 0,0 km/h (0 Bft) N 0 0,000 mm 0,0 UV-I 0 W/m -4,0 C -2,3 C 0,0 km/h (0 Bft) 95,65 %
25.10.2021 03:15 -2,3 C -2,2 C 88 % 1026,6 hPa 0,0 l/m 0,0 km/h (0 Bft) N 0 0,000 mm 0,0 UV-I 0 W/m -4,0 C -2,3 C 0,0 km/h (0 Bft) 91,30 %
25.10.2021 03:14 -2,3 C -2,2 C 88 % 1026,6 hPa 0,0 l/m 0,0 km/h (0 Bft) O-SO 112 0,000 mm 0,0 UV-I 0 W/m -4,0 C -2,3 C 1,6 km/h (1 Bft) 100,00 %
25.10.2021 03:13 -2,3 C -2,2 C 88 % 1026,5 hPa 0,0 l/m 0,0 km/h (0 Bft) O-SO 112 0,000 mm 0,0 UV-I 0 W/m -4,0 C -2,3 C 1,6 km/h (1 Bft) 86,96 %
25.10.2021 03:12 -2,3 C -2,2 C 88 % 1026,5 hPa 0,0 l/m 0,0 km/h (0 Bft) N 0 0,000 mm 0,0 UV-I 0 W/m -4,0 C -2,3 C 0,0 km/h (0 Bft) 95,65 %
25.10.2021 03:11 -2,3 C -2,2 C 88 % 1026,5 hPa 0,0 l/m 0,0 km/h (0 Bft) O-SO 112 0,000 mm 0,0 UV-I 0 W/m -4,0 C -2,3 C 1,6 km/h (1 Bft) 95,65 %
25.10.2021 03:10 -2,3 C -1,7 C 88 % 1026,6 hPa 0,0 l/m 0,0 km/h (0 Bft) O-SO 112 0,000 mm 0,0 UV-I 0 W/m -4,0 C -2,3 C 1,6 km/h (1 Bft) 91,30 %
25.10.2021 03:09 -2,2 C -1,7 C 88 % 1026,6 hPa 0,0 l/m 0,0 km/h (0 Bft) O-SO 112 0,000 mm 0,0 UV-I 0 W/m -3,9 C -2,2 C 1,6 km/h (1 Bft) 95,65 %
25.10.2021 03:08 -2,2 C -2,2 C 88 % 1026,6 hPa 0,0 l/m 1,6 km/h (1 Bft) O-SO 112 0,000 mm 0,0 UV-I 0 W/m -3,9 C -2,2 C 3,2 km/h (1 Bft) 95,65 %
25.10.2021 03:07 -2,2 C -2,2 C 87 % 1026,6 hPa 0,0 l/m 1,6 km/h (1 Bft) O-SO 112 0,000 mm 0,0 UV-I 0 W/m -4,1 C -2,2 C 3,2 km/h (1 Bft) 95,65 %
25.10.2021 03:06 -2,2 C -2,2 C 87 % 1026,5 hPa 0,0 l/m 1,6 km/h (1 Bft) O-SO 112 0,000 mm 0,0 UV-I 0 W/m -4,1 C -2,2 C 3,2 km/h (1 Bft) 86,96 %
25.10.2021 03:05 -2,2 C -2,2 C 87 % 1026,6 hPa 0,0 l/m 1,6 km/h (1 Bft) O-SO 112 0,000 mm 0,0 UV-I 0 W/m -4,1 C -2,2 C 1,6 km/h (1 Bft) 100,00 %
25.10.2021 03:04 -2,2 C -2,2 C 87 % 1026,6 hPa 0,0 l/m 1,6 km/h (1 Bft) O-SO 112 0,000 mm 0,0 UV-I 0 W/m -4,1 C -2,2 C 3,2 km/h (1 Bft) 91,30 %
25.10.2021 03:03 -2,2 C -1,7 C 87 % 1026,6 hPa 0,0 l/m 1,6 km/h (1 Bft) O-SO 112 0,000 mm 0,0 UV-I 0 W/m -4,1 C -2,2 C 3,2 km/h (1 Bft) 91,30 %
25.10.2021 03:02 -2,2 C -1,7 C 88 % 1026,6 hPa 0,0 l/m 0,0 km/h (0 Bft) O-SO 112 0,000 mm 0,0 UV-I 0 W/m -3,9 C -2,2 C 1,6 km/h (1 Bft) 95,65 %
25.10.2021 03:01 -2,2 C -1,7 C 87 % 1026,6 hPa 0,0 l/m 1,6 km/h (1 Bft) O-SO 112 0,000 mm 0,0 UV-I 0 W/m -4,1 C -2,2 C 1,6 km/h (1 Bft) 95,65 %
25.10.2021 03:00 -2,2 C -1,7 C 87 % 1026,6 hPa 0,0 l/m 1,6 km/h (1 Bft) O-SO 112 0,000 mm 0,0 UV-I 0 W/m -4,1 C -2,2 C 3,2 km/h (1 Bft) 91,30 %
25.10.2021 02:59 -2,2 C -1,7 C 87 % 1026,6 hPa 0,0 l/m 1,6 km/h (1 Bft) O-SO 112 0,000 mm 0,0 UV-I 0 W/m -4,1 C -2,2 C 3,2 km/h (1 Bft) 100,00 %
25.10.2021 02:58 -2,1 C -1,7 C 87 % 1026,6 hPa 0,0 l/m 1,6 km/h (1 Bft) O-SO 112 0,000 mm 0,0 UV-I 0 W/m -4,0 C -2,1 C 1,6 km/h (1 Bft) 95,65 %
25.10.2021 02:57 -2,1 C -1,7 C 87 % 1026,6 hPa 0,0 l/m 0,0 km/h (0 Bft) O-SO 112 0,000 mm 0,0 UV-I 0 W/m -4,0 C -2,1 C 1,6 km/h (1 Bft) 91,30 %
25.10.2021 02:56 -2,1 C -1,7 C 87 % 1026,7 hPa 0,0 l/m 0,0 km/h (0 Bft) O-SO 112 0,000 mm 0,0 UV-I 0 W/m -4,0 C -2,1 C 1,6 km/h (1 Bft) 100,00 %
25.10.2021 02:55 -2,1 C -1,7 C 87 % 1026,7 hPa 0,0 l/m 0,0 km/h (0 Bft) O-SO 112 0,000 mm 0,0 UV-I 0 W/m -4,0 C -2,1 C 1,6 km/h (1 Bft) 91,30 %
25.10.2021 02:54 -2,1 C -1,7 C 87 % 1026,7 hPa 0,0 l/m 1,6 km/h (1 Bft) O-SO 112 0,000 mm 0,0 UV-I 0 W/m -4,0 C -2,1 C 3,2 km/h (1 Bft) 95,65 %
25.10.2021 02:53 -2,1 C -1,7 C 87 % 1026,6 hPa 0,0 l/m 1,6 km/h (1 Bft) O-SO 112 0,000 mm 0,0 UV-I 0 W/m -4,0 C -2,1 C 1,6 km/h (1 Bft) 95,65 %
25.10.2021 02:52 -2,1 C -1,7 C 87 % 1026,7 hPa 0,0 l/m 1,6 km/h (1 Bft) O-SO 112 0,000 mm 0,0 UV-I 0 W/m -4,0 C -2,1 C 1,6 km/h (1 Bft) 95,65 %
25.10.2021 02:51 -2,1 C -1,7 C 87 % 1026,7 hPa 0,0 l/m 1,6 km/h (1 Bft) O-SO 112 0,000 mm 0,0 UV-I 0 W/m -4,0 C -2,1 C 3,2 km/h (1 Bft) 95,65 %
25.10.2021 02:50 -2,0 C -1,7 C 87 % 1026,6 hPa 0,0 l/m 1,6 km/h (1 Bft) O-SO 112 0,000 mm 0,0 UV-I 0 W/m -3,9 C -2,0 C 3,2 km/h (1 Bft) 100,00 %
25.10.2021 02:49 -2,0 C -1,7 C 87 % 1026,7 hPa 0,0 l/m 1,6 km/h (1 Bft) O-SO 112 0,000 mm 0,0 UV-I 0 W/m -3,9 C -2,0 C 1,6 km/h (1 Bft) 95,65 %
25.10.2021 02:48 -2,0 C -1,7 C 87 % 1026,7 hPa 0,0 l/m 1,6 km/h (1 Bft) O-SO 112 0,000 mm 0,0 UV-I 0 W/m -3,9 C -2,0 C 1,6 km/h (1 Bft) 95,65 %
25.10.2021 02:47 -2,0 C -1,7 C 87 % 1026,6 hPa 0,0 l/m 1,6 km/h (1 Bft) O-SO 112 0,000 mm 0,0 UV-I 0 W/m -3,9 C -2,0 C 3,2 km/h (1 Bft) 100,00 %
25.10.2021 02:46 -2,0 C -1,7 C 87 % 1026,7 hPa 0,0 l/m 1,6 km/h (1 Bft) O-SO 112 0,000 mm 0,0 UV-I 0 W/m -3,9 C -2,0 C 3,2 km/h (1 Bft) 95,65 %
25.10.2021 02:45 -1,9 C -1,7 C 87 % 1026,6 hPa 0,0 l/m 1,6 km/h (1 Bft) O-SO 112 0,000 mm 0,0 UV-I 0 W/m -3,8 C -1,9 C 1,6 km/h (1 Bft) 91,30 %
25.10.2021 02:44 -1,9 C -1,7 C 87 % 1026,7 hPa 0,0 l/m 1,6 km/h (1 Bft) O-SO 112 0,000 mm 0,0 UV-I 0 W/m -3,8 C -1,9 C 1,6 km/h (1 Bft) 95,65 %
25.10.2021 02:43 -1,9 C -1,7 C 87 % 1026,7 hPa 0,0 l/m 0,0 km/h (0 Bft) O-SO 112 0,000 mm 0,0 UV-I 0 W/m -3,8 C -1,9 C 1,6 km/h (1 Bft) 100,00 %
25.10.2021 02:42 -1,9 C -1,7 C 87 % 1026,8 hPa 0,0 l/m 0,0 km/h (0 Bft) O-SO 112 0,000 mm 0,0 UV-I 0 W/m -3,8 C -1,9 C 1,6 km/h (1 Bft) 95,65 %
25.10.2021 02:41 -1,9 C -1,7 C 87 % 1026,7 hPa 0,0 l/m 1,6 km/h (1 Bft) O-SO 112 0,000 mm 0,0 UV-I 0 W/m -3,8 C -1,9 C 1,6 km/h (1 Bft) 95,65 %
25.10.2021 02:40 -1,9 C -1,7 C 87 % 1026,7 hPa 0,0 l/m 1,6 km/h (1 Bft) O-SO 112 0,000 mm 0,0 UV-I 0 W/m -3,8 C -1,9 C 1,6 km/h (1 Bft) 95,65 %
25.10.2021 02:39 -1,9 C -1,7 C 87 % 1026,8 hPa 0,0 l/m 1,6 km/h (1 Bft) O-SO 112 0,000 mm 0,0 UV-I 0 W/m -3,8 C -1,9 C 3,2 km/h (1 Bft) 95,65 %
25.10.2021 02:38 -1,9 C -1,7 C 87 % 1026,8 hPa 0,0 l/m 1,6 km/h (1 Bft) O-SO 112 0,000 mm 0,0 UV-I 0 W/m -3,8 C -1,9 C 1,6 km/h (1 Bft) 95,65 %
25.10.2021 02:37 -1,8 C -1,7 C 87 % 1026,8 hPa 0,0 l/m 1,6 km/h (1 Bft) O-SO 112 0,000 mm 0,0 UV-I 0 W/m -3,7 C -1,8 C 1,6 km/h (1 Bft) 95,65 %
25.10.2021 02:36 -1,8 C -1,7 C 87 % 1026,8 hPa 0,0 l/m 0,0 km/h (0 Bft) O-SO 112 0,000 mm 0,0 UV-I 0 W/m -3,7 C -1,8 C 1,6 km/h (1 Bft) 95,65 %
25.10.2021 02:35 -1,8 C -1,7 C 87 % 1026,8 hPa 0,0 l/m 0,0 km/h (0 Bft) O-SO 112 0,000 mm 0,0 UV-I 0 W/m -3,7 C -1,8 C 1,6 km/h (1 Bft) 95,65 %
25.10.2021 02:34 -1,8 C -1,7 C 87 % 1026,8 hPa 0,0 l/m 1,6 km/h (1 Bft) O-SO 112 0,000 mm 0,0 UV-I 0 W/m -3,7 C -1,8 C 3,2 km/h (1 Bft) 95,65 %
25.10.2021 02:33 -1,8 C -1,7 C 87 % 1026,8 hPa 0,0 l/m 0,0 km/h (0 Bft) O-SO 112 0,000 mm 0,0 UV-I 0 W/m -3,7 C -1,8 C 1,6 km/h (1 Bft) 95,65 %
25.10.2021 02:32 -1,8 C -1,7 C 87 % 1026,8 hPa 0,0 l/m 0,0 km/h (0 Bft) O-SO 112 0,000 mm 0,0 UV-I 0 W/m -3,7 C -1,8 C 1,6 km/h (1 Bft) 95,65 %
25.10.2021 02:31 -1,8 C -1,7 C 87 % 1026,8 hPa 0,0 l/m 0,0 km/h (0 Bft) O-SO 112 0,000 mm 0,0 UV-I 0 W/m -3,7 C -1,8 C 1,6 km/h (1 Bft) 100,00 %
25.10.2021 02:30 -1,8 C -1,7 C 87 % 1026,8 hPa 0,0 l/m 1,6 km/h (1 Bft) O-SO 112 0,000 mm 0,0 UV-I 0 W/m -3,7 C -1,8 C 1,6 km/h (1 Bft) 95,65 %
25.10.2021 02:29 -1,7 C -1,7 C 87 % 1026,9 hPa 0,0 l/m 0,0 km/h (0 Bft) O-SO 112 0,000 mm 0,0 UV-I 0 W/m -3,6 C -1,7 C 1,6 km/h (1 Bft) 91,30 %
25.10.2021 02:28 -1,8 C -1,7 C 87 % 1026,9 hPa 0,0 l/m 1,6 km/h (1 Bft) O-SO 112 0,000 mm 0,0 UV-I 0 W/m -3,7 C -1,8 C 1,6 km/h (1 Bft) 100,00 %
25.10.2021 02:27 -1,7 C -1,7 C 87 % 1026,9 hPa 0,0 l/m 1,6 km/h (1 Bft) O-SO 112 0,000 mm 0,0 UV-I 0 W/m -3,6 C -1,7 C 3,2 km/h (1 Bft) 95,65 %
25.10.2021 02:26 -1,7 C -1,7 C 87 % 1026,8 hPa 0,0 l/m 1,6 km/h (1 Bft) O-SO 112 0,000 mm 0,0 UV-I 0 W/m -3,6 C -1,7 C 3,2 km/h (1 Bft) 91,30 %
25.10.2021 02:25 -1,7 C -1,7 C 87 % 1026,9 hPa 0,0 l/m 1,6 km/h (1 Bft) O-SO 112 0,000 mm 0,0 UV-I 0 W/m -3,6 C -1,7 C 1,6 km/h (1 Bft) 100,00 %
25.10.2021 02:24 -1,7 C -1,7 C 87 % 1026,9 hPa 0,0 l/m 0,0 km/h (0 Bft) O-SO 112 0,000 mm 0,0 UV-I 0 W/m -3,6 C -1,7 C 1,6 km/h (1 Bft) 95,65 %
25.10.2021 02:23 -1,7 C -1,7 C 87 % 1026,9 hPa 0,0 l/m 0,0 km/h (0 Bft) N 0 0,000 mm 0,0 UV-I 0 W/m -3,6 C -1,7 C 0,0 km/h (0 Bft) 95,65 %
25.10.2021 02:22 -1,7 C -1,7 C 87 % 1027,0 hPa 0,0 l/m 0,0 km/h (0 Bft) N 0 0,000 mm 0,0 UV-I 0 W/m -3,6 C -1,7 C 0,0 km/h (0 Bft) 100,00 %
25.10.2021 02:21 -1,6 C -1,7 C 87 % 1026,9 hPa 0,0 l/m 0,0 km/h (0 Bft) O-SO 112 0,000 mm 0,0 UV-I 0 W/m -3,5 C -1,6 C 1,6 km/h (1 Bft) 91,30 %
25.10.2021 02:20 -1,6 C -1,7 C 87 % 1027,0 hPa 0,0 l/m 1,6 km/h (1 Bft) O-SO 112 0,000 mm 0,0 UV-I 0 W/m -3,5 C -1,6 C 1,6 km/h (1 Bft) 95,65 %
25.10.2021 02:19 -1,6 C -1,7 C 86 % 1027,0 hPa 0,0 l/m 1,6 km/h (1 Bft) O-SO 112 0,000 mm 0,0 UV-I 0 W/m -3,6 C -1,6 C 3,2 km/h (1 Bft) 100,00 %
25.10.2021 02:18 -1,6 C -1,7 C 86 % 1027,0 hPa 0,0 l/m 3,2 km/h (1 Bft) O-SO 112 0,000 mm 0,0 UV-I 0 W/m -3,6 C -1,6 C 3,2 km/h (1 Bft) 95,65 %
25.10.2021 02:17 -1,6 C -1,7 C 86 % 1027,0 hPa 0,0 l/m 1,6 km/h (1 Bft) O-SO 112 0,000 mm 0,0 UV-I 0 W/m -3,6 C -1,6 C 3,2 km/h (1 Bft) 95,65 %
25.10.2021 02:16 -1,6 C -1,7 C 86 % 1027,0 hPa 0,0 l/m 1,6 km/h (1 Bft) O-SO 112 0,000 mm 0,0 UV-I 0 W/m -3,6 C -1,6 C 3,2 km/h (1 Bft) 100,00 %
25.10.2021 02:15 -1,5 C -1,7 C 86 % 1027,0 hPa 0,0 l/m 1,6 km/h (1 Bft) O-SO 112 0,000 mm 0,0 UV-I 0 W/m -3,5 C -1,5 C 1,6 km/h (1 Bft) 95,65 %
25.10.2021 02:14 -1,5 C -1,7 C 86 % 1027,0 hPa 0,0 l/m 1,6 km/h (1 Bft) O-SO 112 0,000 mm 0,0 UV-I 0 W/m -3,5 C -1,5 C 3,2 km/h (1 Bft) 95,65 %
25.10.2021 02:13 -1,5 C -1,1 C 86 % 1027,0 hPa 0,0 l/m 3,2 km/h (1 Bft) O-SO 112 0,000 mm 0,0 UV-I 0 W/m -3,5 C -1,5 C 3,2 km/h (1 Bft) 95,65 %
25.10.2021 02:12 -1,4 C -1,1 C 86 % 1026,9 hPa 0,0 l/m 3,2 km/h (1 Bft) O-SO 112 0,000 mm 0,0 UV-I 0 W/m -3,4 C -1,4 C 3,2 km/h (1 Bft) 86,96 %
25.10.2021 02:11 -1,4 C -1,1 C 86 % 1027,0 hPa 0,0 l/m 1,6 km/h (1 Bft) O-SO 112 0,000 mm 0,0 UV-I 0 W/m -3,4 C -1,4 C 3,2 km/h (1 Bft) 91,30 %
25.10.2021 02:10 -1,4 C -1,1 C 86 % 1027,0 hPa 0,0 l/m 0,0 km/h (0 Bft) N 0 0,000 mm 0,0 UV-I 0 W/m -3,4 C -1,4 C 0,0 km/h (0 Bft) 95,65 %
25.10.2021 02:09 -1,4 C -1,1 C 86 % 1026,9 hPa 0,0 l/m 0,0 km/h (0 Bft) N 0 0,000 mm 0,0 UV-I 0 W/m -3,4 C -1,4 C 0,0 km/h (0 Bft) 91,30 %
25.10.2021 02:08 -1,4 C -1,1 C 86 % 1026,9 hPa 0,0 l/m 0,0 km/h (0 Bft) N 0 0,000 mm 0,0 UV-I 0 W/m -3,4 C -1,4 C 0,0 km/h (0 Bft) 91,30 %
25.10.2021 02:07 -1,4 C -1,1 C 86 % 1027,0 hPa 0,0 l/m 0,0 km/h (0 Bft) N 0 0,000 mm 0,0 UV-I 0 W/m -3,4 C -1,4 C 0,0 km/h (0 Bft) 100,00 %
25.10.2021 02:06 -1,3 C -1,1 C 86 % 1027,0 hPa 0,0 l/m 0,0 km/h (0 Bft) N 0 0,000 mm 0,0 UV-I 0 W/m -3,3 C -1,3 C 0,0 km/h (0 Bft) 91,30 %
25.10.2021 02:05 -1,3 C -1,1 C 86 % 1027,0 hPa 0,0 l/m 0,0 km/h (0 Bft) N 0 0,000 mm 0,0 UV-I 0 W/m -3,3 C -1,3 C 0,0 km/h (0 Bft) 95,65 %
25.10.2021 02:04 -1,3 C -1,1 C 86 % 1026,9 hPa 0,0 l/m 0,0 km/h (0 Bft) N 0 0,000 mm 0,0 UV-I 0 W/m -3,3 C -1,3 C 0,0 km/h (0 Bft) 95,65 %
25.10.2021 02:03 -1,3 C -1,1 C 86 % 1027,0 hPa 0,0 l/m 0,0 km/h (0 Bft) N 0 0,000 mm 0,0 UV-I 0 W/m -3,3 C -1,3 C 0,0 km/h (0 Bft) 95,65 %
25.10.2021 02:02 -1,3 C -1,1 C 86 % 1027,0 hPa 0,0 l/m 0,0 km/h (0 Bft) N 0 0,000 mm 0,0 UV-I 0 W/m -3,3 C -1,3 C 0,0 km/h (0 Bft) 91,30 %
25.10.2021 02:01 -1,3 C -1,1 C 86 % 1027,0 hPa 0,0 l/m 0,0 km/h (0 Bft) N 0 0,000 mm 0,0 UV-I 0 W/m -3,3 C -1,3 C 0,0 km/h (0 Bft) 86,96 %
25.10.2021 02:00 -1,3 C -1,1 C 86 % 1027,0 hPa 0,0 l/m 0,0 km/h (0 Bft) N 0 0,000 mm 0,0 UV-I 0 W/m -3,3 C -1,3 C 0,0 km/h (0 Bft) 95,65 %
25.10.2021 01:59 -1,3 C -1,1 C 86 % 1027,0 hPa 0,0 l/m 0,0 km/h (0 Bft) N 0 0,000 mm 0,0 UV-I 0 W/m -3,3 C -1,3 C 0,0 km/h (0 Bft) 91,30 %
25.10.2021 01:58 -1,3 C -1,1 C 86 % 1027,0 hPa 0,0 l/m 0,0 km/h (0 Bft) N 0 0,000 mm 0,0 UV-I 0 W/m -3,3 C -1,3 C 0,0 km/h (0 Bft) 91,30 %
25.10.2021 01:57 -1,2 C -1,1 C 85 % 1027,0 hPa 0,0 l/m 0,0 km/h (0 Bft) N 0 0,000 mm 0,0 UV-I 0 W/m -3,4 C -1,2 C 0,0 km/h (0 Bft) 95,65 %
25.10.2021 01:56 -1,2 C -1,1 C 85 % 1027,0 hPa 0,0 l/m 0,0 km/h (0 Bft) N 0 0,000 mm 0,0 UV-I 0 W/m -3,4 C -1,2 C 0,0 km/h (0 Bft) 91,30 %
25.10.2021 01:55 -1,2 C -1,1 C 85 % 1027,0 hPa 0,0 l/m 0,0 km/h (0 Bft) N 0 0,000 mm 0,0 UV-I 0 W/m -3,4 C -1,2 C 0,0 km/h (0 Bft) 91,30 %
25.10.2021 01:54 -1,2 C -1,1 C 85 % 1027,0 hPa 0,0 l/m 0,0 km/h (0 Bft) N 0 0,000 mm 0,0 UV-I 0 W/m -3,4 C -1,2 C 0,0 km/h (0 Bft) 91,30 %
25.10.2021 01:53 -1,2 C -1,1 C 85 % 1026,9 hPa 0,0 l/m 0,0 km/h (0 Bft) N 0 0,000 mm 0,0 UV-I 0 W/m -3,4 C -1,2 C 0,0 km/h (0 Bft) 91,30 %
25.10.2021 01:52 -1,1 C -1,1 C 85 % 1027,0 hPa 0,0 l/m 0,0 km/h (0 Bft) N 0 0,000 mm 0,0 UV-I 0 W/m -3,3 C -1,1 C 0,0 km/h (0 Bft) 91,30 %
25.10.2021 01:51 -1,1 C -1,1 C 85 % 1027,0 hPa 0,0 l/m 0,0 km/h (0 Bft) N 0 0,000 mm 0,0 UV-I 0 W/m -3,3 C -1,1 C 0,0 km/h (0 Bft) 86,96 %
25.10.2021 01:50 -1,1 C -1,1 C 85 % 1027,0 hPa 0,0 l/m 0,0 km/h (0 Bft) N 0 0,000 mm 0,0 UV-I 0 W/m -3,3 C -1,1 C 0,0 km/h (0 Bft) 91,30 %
25.10.2021 01:49 -1,1 C -1,1 C 85 % 1027,0 hPa 0,0 l/m 0,0 km/h (0 Bft) N 0 0,000 mm 0,0 UV-I 0 W/m -3,3 C -1,1 C 0,0 km/h (0 Bft) 86,96 %
25.10.2021 01:48 -1,0 C -1,1 C 85 % 1027,0 hPa 0,0 l/m 0,0 km/h (0 Bft) N 0 0,000 mm 0,0 UV-I 0 W/m -3,2 C -1,0 C 0,0 km/h (0 Bft) 95,65 %
25.10.2021 01:47 -1,0 C -1,1 C 85 % 1027,1 hPa 0,0 l/m 0,0 km/h (0 Bft) N 0 0,000 mm 0,0 UV-I 0 W/m -3,2 C -1,0 C 0,0 km/h (0 Bft) 91,30 %
25.10.2021 01:46 -0,9 C -1,1 C 85 % 1027,0 hPa 0,0 l/m 0,0 km/h (0 Bft) N 0 0,000 mm 0,0 UV-I 0 W/m -3,1 C -0,9 C 0,0 km/h (0 Bft) 91,30 %
25.10.2021 01:45 -0,9 C -1,1 C 85 % 1027,1 hPa 0,0 l/m 0,0 km/h (0 Bft) N 0 0,000 mm 0,0 UV-I 0 W/m -3,1 C -0,9 C 0,0 km/h (0 Bft) 91,30 %
25.10.2021 01:44 -0,9 C -1,1 C 85 % 1027,1 hPa 0,0 l/m 0,0 km/h (0 Bft) N 0 0,000 mm 0,0 UV-I 0 W/m -3,1 C -0,9 C 0,0 km/h (0 Bft) 91,30 %
25.10.2021 01:43 -0,9 C -1,1 C 85 % 1027,1 hPa 0,0 l/m 0,0 km/h (0 Bft) N 0 0,000 mm 0,0 UV-I 0 W/m -3,1 C -0,9 C 0,0 km/h (0 Bft) 91,30 %
25.10.2021 01:42 -0,9 C -1,1 C 85 % 1027,1 hPa 0,0 l/m 0,0 km/h (0 Bft) N 0 0,000 mm 0,0 UV-I 0 W/m -3,1 C -0,9 C 0,0 km/h (0 Bft) 91,30 %
25.10.2021 01:41 -0,8 C -1,1 C 85 % 1027,1 hPa 0,0 l/m 0,0 km/h (0 Bft) N 0 0,000 mm 0,0 UV-I 0 W/m -3,0 C -0,8 C 0,0 km/h (0 Bft) 91,30 %
25.10.2021 01:40 -0,8 C -1,1 C 85 % 1027,2 hPa 0,0 l/m 0,0 km/h (0 Bft) N 0 0,000 mm 0,0 UV-I 0 W/m -3,0 C -0,8 C 0,0 km/h (0 Bft) 95,65 %
25.10.2021 01:39 -0,8 C -1,1 C 85 % 1027,2 hPa 0,0 l/m 0,0 km/h (0 Bft) N 0 0,000 mm 0,0 UV-I 0 W/m -3,0 C -0,8 C 0,0 km/h (0 Bft) 95,65 %
25.10.2021 01:38 -0,8 C -1,1 C 84 % 1027,2 hPa 0,0 l/m 0,0 km/h (0 Bft) N 0 0,000 mm 0,0 UV-I 0 W/m -3,2 C -0,8 C 0,0 km/h (0 Bft) 95,65 %
25.10.2021 01:37 -0,7 C -1,1 C 85 % 1027,2 hPa 0,0 l/m 0,0 km/h (0 Bft) N 0 0,000 mm 0,0 UV-I 0 W/m -2,9 C -0,7 C 0,0 km/h (0 Bft) 91,30 %
25.10.2021 01:36 -0,7 C -1,1 C 85 % 1027,2 hPa 0,0 l/m 0,0 km/h (0 Bft) N 0 0,000 mm 0,0 UV-I 0 W/m -2,9 C -0,7 C 0,0 km/h (0 Bft) 95,65 %
25.10.2021 01:35 -0,7 C -1,1 C 85 % 1027,2 hPa 0,0 l/m 0,0 km/h (0 Bft) N 0 0,000 mm 0,0 UV-I 0 W/m -2,9 C -0,7 C 0,0 km/h (0 Bft) 86,96 %
25.10.2021 01:34 -0,6 C -1,1 C 85 % 1027,2 hPa 0,0 l/m 0,0 km/h (0 Bft) N 0 0,000 mm 0,0 UV-I 0 W/m -2,8 C -0,6 C 0,0 km/h (0 Bft) 91,30 %
25.10.2021 01:33 -0,6 C -0,6 C 85 % 1027,2 hPa 0,0 l/m 0,0 km/h (0 Bft) N 0 0,000 mm 0,0 UV-I 0 W/m -2,8 C -0,6 C 0,0 km/h (0 Bft) 95,65 %
25.10.2021 01:32 -0,6 C -0,6 C 84 % 1027,3 hPa 0,0 l/m 0,0 km/h (0 Bft) N 0 0,000 mm 0,0 UV-I 0 W/m -3,0 C -0,6 C 0,0 km/h (0 Bft) 91,30 %
25.10.2021 01:31 -0,5 C -0,6 C 84 % 1027,3 hPa 0,0 l/m 0,0 km/h (0 Bft) N 0 0,000 mm 0,0 UV-I 0 W/m -2,9 C -0,5 C 0,0 km/h (0 Bft) 95,65 %
25.10.2021 01:30 -0,5 C -0,6 C 84 % 1027,3 hPa 0,0 l/m 0,0 km/h (0 Bft) N 0 0,000 mm 0,0 UV-I 0 W/m -2,9 C -0,5 C 0,0 km/h (0 Bft) 100,00 %
25.10.2021 01:29 -0,4 C -0,6 C 84 % 1027,3 hPa 0,0 l/m 0,0 km/h (0 Bft) N 0 0,000 mm 0,0 UV-I 0 W/m -2,8 C -0,4 C 0,0 km/h (0 Bft) 95,65 %
25.10.2021 01:28 -0,4 C -0,6 C 84 % 1027,3 hPa 0,0 l/m 0,0 km/h (0 Bft) N 0 0,000 mm 0,0 UV-I 0 W/m -2,8 C -0,4 C 0,0 km/h (0 Bft) 95,65 %
25.10.2021 01:27 -0,4 C -0,6 C 84 % 1027,3 hPa 0,0 l/m 0,0 km/h (0 Bft) N 0 0,000 mm 0,0 UV-I 0 W/m -2,8 C -0,4 C 0,0 km/h (0 Bft) 95,65 %
25.10.2021 01:26 -0,3 C -0,6 C 84 % 1027,3 hPa 0,0 l/m 0,0 km/h (0 Bft) N 0 0,000 mm 0,0 UV-I 0 W/m -2,7 C -0,3 C 0,0 km/h (0 Bft) 86,96 %
25.10.2021 01:25 -0,3 C -0,6 C 84 % 1027,3 hPa 0,0 l/m 0,0 km/h (0 Bft) N 0 0,000 mm 0,0 UV-I 0 W/m -2,7 C -0,3 C 0,0 km/h (0 Bft) 95,65 %
25.10.2021 01:24 -0,3 C -0,6 C 84 % 1027,3 hPa 0,0 l/m 0,0 km/h (0 Bft) N 0 0,000 mm 0,0 UV-I 0 W/m -2,7 C -0,3 C 0,0 km/h (0 Bft) 91,30 %
25.10.2021 01:23 -0,2 C -0,6 C 84 % 1027,3 hPa 0,0 l/m 0,0 km/h (0 Bft) N 0 0,000 mm 0,0 UV-I 0 W/m -2,6 C -0,2 C 0,0 km/h (0 Bft) 95,65 %
25.10.2021 01:22 -0,2 C -0,6 C 84 % 1027,3 hPa 0,0 l/m 0,0 km/h (0 Bft) N 0 0,000 mm 0,0 UV-I 0 W/m -2,6 C -0,2 C 0,0 km/h (0 Bft) 95,65 %
25.10.2021 01:21 -0,1 C -0,6 C 84 % 1027,3 hPa 0,0 l/m 0,0 km/h (0 Bft) N 0 0,000 mm 0,0 UV-I 0 W/m -2,5 C -0,1 C 0,0 km/h (0 Bft) 100,00 %
25.10.2021 01:20 -0,1 C -0,6 C 84 % 1027,2 hPa 0,0 l/m 0,0 km/h (0 Bft) N 0 0,000 mm 0,0 UV-I 0 W/m -2,5 C -0,1 C 0,0 km/h (0 Bft) 91,30 %
25.10.2021 01:19 -0,1 C -0,6 C 84 % 1027,3 hPa 0,0 l/m 0,0 km/h (0 Bft) N 0 0,000 mm 0,0 UV-I 0 W/m -2,5 C -0,1 C 0,0 km/h (0 Bft) 95,65 %
25.10.2021 01:18 0,0 C -0,6 C 85 % 1027,3 hPa 0,0 l/m 0,0 km/h (0 Bft) N 0 0,000 mm 0,0 UV-I 0 W/m -2,2 C 0,0 C 0,0 km/h (0 Bft) 100,00 %
25.10.2021 01:17 0,1 C -0,6 C 84 % 1027,3 hPa 0,0 l/m 0,0 km/h (0 Bft) N 0 0,000 mm 0,0 UV-I 0 W/m -2,3 C 0,1 C 0,0 km/h (0 Bft) 95,65 %
25.10.2021 01:16 0,1 C -0,6 C 84 % 1027,3 hPa 0,0 l/m 0,0 km/h (0 Bft) N 0 0,000 mm 0,0 UV-I 0 W/m -2,3 C 0,1 C 0,0 km/h (0 Bft) 95,65 %
25.10.2021 01:15 0,1 C -0,6 C 85 % 1027,3 hPa 0,0 l/m 0,0 km/h (0 Bft) N 0 0,000 mm 0,0 UV-I 0 W/m -2,1 C 0,1 C 0,0 km/h (0 Bft) 91,30 %
25.10.2021 01:14 0,2 C -0,6 C 85 % 1027,3 hPa 0,0 l/m 0,0 km/h (0 Bft) N 0 0,000 mm 0,0 UV-I 0 W/m -2,0 C 0,2 C 0,0 km/h (0 Bft) 100,00 %
25.10.2021 01:13 0,2 C -0,6 C 85 % 1027,2 hPa 0,0 l/m 0,0 km/h (0 Bft) N 0 0,000 mm 0,0 UV-I 0 W/m -2,0 C 0,2 C 0,0 km/h (0 Bft) 95,65 %
25.10.2021 01:12 0,2 C -0,6 C 85 % 1027,3 hPa 0,0 l/m 0,0 km/h (0 Bft) N 0 0,000 mm 0,0 UV-I 0 W/m -2,0 C 0,2 C 0,0 km/h (0 Bft) 95,65 %
25.10.2021 01:11 0,3 C -0,6 C 85 % 1027,2 hPa 0,0 l/m 0,0 km/h (0 Bft) N 0 0,000 mm 0,0 UV-I 0 W/m -1,9 C 0,3 C 0,0 km/h (0 Bft) 100,00 %
25.10.2021 01:10 0,3 C -0,6 C 85 % 1027,2 hPa 0,0 l/m 0,0 km/h (0 Bft) N 0 0,000 mm 0,0 UV-I 0 W/m -1,9 C 0,3 C 0,0 km/h (0 Bft) 95,65 %
25.10.2021 01:09 0,3 C -0,6 C 85 % 1027,3 hPa 0,0 l/m 0,0 km/h (0 Bft) N 0 0,000 mm 0,0 UV-I 0 W/m -1,9 C 0,3 C 0,0 km/h (0 Bft) 95,65 %
25.10.2021 01:08 0,4 C -0,6 C 85 % 1027,2 hPa 0,0 l/m 0,0 km/h (0 Bft) N 0 0,000 mm 0,0 UV-I 0 W/m -1,8 C 0,4 C 0,0 km/h (0 Bft) 100,00 %
25.10.2021 01:07 0,4 C -0,6 C 85 % 1027,2 hPa 0,0 l/m 0,0 km/h (0 Bft) N 0 0,000 mm 0,0 UV-I 0 W/m -1,8 C 0,4 C 0,0 km/h (0 Bft) 91,30 %
25.10.2021 01:06 0,5 C -0,6 C 85 % 1027,2 hPa 0,0 l/m 0,0 km/h (0 Bft) N 0 0,000 mm 0,0 UV-I 0 W/m -1,7 C 0,5 C 0,0 km/h (0 Bft) 95,65 %
25.10.2021 01:05 0,5 C -0,6 C 85 % 1027,2 hPa 0,0 l/m 0,0 km/h (0 Bft) N 0 0,000 mm 0,0 UV-I 0 W/m -1,7 C 0,5 C 0,0 km/h (0 Bft) 100,00 %
25.10.2021 01:04 0,6 C 0,0 C 85 % 1027,2 hPa 0,0 l/m 0,0 km/h (0 Bft) N 0 0,000 mm 0,0 UV-I 0 W/m -1,6 C 0,6 C 0,0 km/h (0 Bft) 91,30 %
25.10.2021 01:03 0,6 C 0,0 C 85 % 1027,3 hPa 0,0 l/m 0,0 km/h (0 Bft) N 0 0,000 mm 0,0 UV-I 0 W/m -1,6 C 0,6 C 0,0 km/h (0 Bft) 91,30 %
25.10.2021 01:02 0,7 C -0,6 C 85 % 1027,3 hPa 0,0 l/m 0,0 km/h (0 Bft) N 0 0,000 mm 0,0 UV-I 0 W/m -1,5 C 0,7 C 0,0 km/h (0 Bft) 100,00 %
25.10.2021 01:01 0,7 C -0,6 C 85 % 1027,3 hPa 0,0 l/m 0,0 km/h (0 Bft) N 0 0,000 mm 0,0 UV-I 0 W/m -1,5 C 0,7 C 0,0 km/h (0 Bft) 91,30 %
25.10.2021 01:00 0,7 C 0,0 C 85 % 1027,3 hPa 0,0 l/m 0,0 km/h (0 Bft) N 0 0,000 mm 0,0 UV-I 0 W/m -1,5 C 0,7 C 0,0 km/h (0 Bft) 95,65 %
25.10.2021 00:59 0,8 C 0,0 C 85 % 1027,3 hPa 0,0 l/m 0,0 km/h (0 Bft) N 0 0,000 mm 0,0 UV-I 0 W/m -1,4 C 0,8 C 0,0 km/h (0 Bft) 100,00 %
25.10.2021 00:58 0,8 C 0,0 C 85 % 1027,2 hPa 0,0 l/m 0,0 km/h (0 Bft) N 0 0,000 mm 0,0 UV-I 0 W/m -1,4 C 0,8 C 0,0 km/h (0 Bft) 86,96 %
25.10.2021 00:57 0,8 C 0,0 C 86 % 1027,2 hPa 0,0 l/m 0,0 km/h (0 Bft) N 0 0,000 mm 0,0 UV-I 0 W/m -1,3 C 0,8 C 0,0 km/h (0 Bft) 95,65 %
25.10.2021 00:56 0,8 C 0,0 C 86 % 1027,2 hPa 0,0 l/m 0,0 km/h (0 Bft) N 0 0,000 mm 0,0 UV-I 0 W/m -1,3 C 0,8 C 0,0 km/h (0 Bft) 100,00 %
25.10.2021 00:55 0,9 C 0,0 C 86 % 1027,2 hPa 0,0 l/m 0,0 km/h (0 Bft) N 0 0,000 mm 0,0 UV-I 0 W/m -1,2 C 0,9 C 0,0 km/h (0 Bft) 95,65 %
25.10.2021 00:54 0,9 C 0,0 C 86 % 1027,3 hPa 0,0 l/m 0,0 km/h (0 Bft) N 0 0,000 mm 0,0 UV-I 0 W/m -1,2 C 0,9 C 0,0 km/h (0 Bft) 95,65 %
25.10.2021 00:53 0,9 C 0,0 C 86 % 1027,4 hPa 0,0 l/m 0,0 km/h (0 Bft) N 0 0,000 mm 0,0 UV-I 0 W/m -1,2 C 0,9 C 0,0 km/h (0 Bft) 95,65 %
25.10.2021 00:52 0,9 C 0,0 C 86 % 1027,3 hPa 0,0 l/m 0,0 km/h (0 Bft) N 0 0,000 mm 0,0 UV-I 0 W/m -1,2 C 0,9 C 0,0 km/h (0 Bft) 95,65 %
25.10.2021 00:51 1,0 C 0,0 C 86 % 1027,3 hPa 0,0 l/m 0,0 km/h (0 Bft) N 0 0,000 mm 0,0 UV-I 0 W/m -1,1 C 1,0 C 0,0 km/h (0 Bft) 95,65 %
25.10.2021 00:50 1,0 C 0,0 C 86 % 1027,4 hPa 0,0 l/m 0,0 km/h (0 Bft) N 0 0,000 mm 0,0 UV-I 0 W/m -1,1 C 1,0 C 0,0 km/h (0 Bft) 100,00 %
25.10.2021 00:49 1,0 C 0,0 C 86 % 1027,4 hPa 0,0 l/m 1,6 km/h (1 Bft) O-SO 112 0,000 mm 0,0 UV-I 0 W/m -1,1 C 1,0 C 1,6 km/h (1 Bft) 95,65 %
25.10.2021 00:48 1,1 C 0,0 C 86 % 1027,4 hPa 0,0 l/m 1,6 km/h (1 Bft) O-SO 112 0,000 mm 0,0 UV-I 0 W/m -1,0 C 1,1 C 3,2 km/h (1 Bft) 91,30 %
25.10.2021 00:47 1,1 C 0,0 C 86 % 1027,4 hPa 0,0 l/m 1,6 km/h (1 Bft) O-SO 112 0,000 mm 0,0 UV-I 0 W/m -1,0 C 1,1 C 3,2 km/h (1 Bft) 100,00 %
25.10.2021 00:46 1,1 C 0,0 C 86 % 1027,4 hPa 0,0 l/m 3,2 km/h (1 Bft) O-SO 112 0,000 mm 0,0 UV-I 0 W/m -1,0 C 1,1 C 3,2 km/h (1 Bft) 91,30 %
25.10.2021 00:45 1,1 C 0,6 C 86 % 1027,4 hPa 0,0 l/m 1,6 km/h (1 Bft) O-SO 112 0,000 mm 0,0 UV-I 0 W/m -1,0 C 1,1 C 3,2 km/h (1 Bft) 95,65 %
25.10.2021 00:44 1,1 C 0,0 C 86 % 1027,4 hPa 0,0 l/m 1,6 km/h (1 Bft) O-SO 112 0,000 mm 0,0 UV-I 0 W/m -1,0 C 1,1 C 3,2 km/h (1 Bft) 95,65 %
25.10.2021 00:43 1,1 C 0,6 C 86 % 1027,4 hPa 0,0 l/m 1,6 km/h (1 Bft) O-SO 112 0,000 mm 0,0 UV-I 0 W/m -1,0 C 1,1 C 3,2 km/h (1 Bft) 95,65 %
25.10.2021 00:42 1,1 C 0,6 C 86 % 1027,4 hPa 0,0 l/m 0,0 km/h (0 Bft) O-SO 112 0,000 mm 0,0 UV-I 0 W/m -1,0 C 1,1 C 1,6 km/h (1 Bft) 95,65 %
25.10.2021 00:41 1,2 C 0,6 C 86 % 1027,5 hPa 0,0 l/m 0,0 km/h (0 Bft) O-SO 112 0,000 mm 0,0 UV-I 0 W/m -0,9 C 1,2 C 1,6 km/h (1 Bft) 100,00 %
25.10.2021 00:40 1,2 C 0,6 C 86 % 1027,4 hPa 0,0 l/m 1,6 km/h (1 Bft) O-SO 112 0,000 mm 0,0 UV-I 0 W/m -0,9 C 1,2 C 1,6 km/h (1 Bft) 95,65 %
25.10.2021 00:39 1,2 C 0,6 C 86 % 1027,4 hPa 0,0 l/m 1,6 km/h (1 Bft) O-SO 112 0,000 mm 0,0 UV-I 0 W/m -0,9 C 1,2 C 3,2 km/h (1 Bft) 95,65 %
25.10.2021 00:38 1,2 C 0,6 C 86 % 1027,5 hPa 0,0 l/m 1,6 km/h (1 Bft) O-SO 112 0,000 mm 0,0 UV-I 0 W/m -0,9 C 1,2 C 3,2 km/h (1 Bft) 95,65 %
25.10.2021 00:37 1,2 C 0,6 C 86 % 1027,4 hPa 0,0 l/m 1,6 km/h (1 Bft) O-SO 112 0,000 mm 0,0 UV-I 0 W/m -0,9 C 1,2 C 3,2 km/h (1 Bft) 91,30 %
25.10.2021 00:36 1,2 C 0,6 C 86 % 1027,3 hPa 0,0 l/m 1,6 km/h (1 Bft) O-SO 112 0,000 mm 0,0 UV-I 0 W/m -0,9 C 1,2 C 1,6 km/h (1 Bft) 95,65 %
25.10.2021 00:35 1,2 C 0,6 C 86 % 1027,5 hPa 0,0 l/m 3,2 km/h (1 Bft) O-SO 112 0,000 mm 0,0 UV-I 0 W/m -0,9 C 1,2 C 4,8 km/h (1 Bft) 100,00 %
25.10.2021 00:34 1,2 C 0,0 C 86 % 1027,5 hPa 0,0 l/m 3,2 km/h (1 Bft) O-SO 112 0,000 mm 0,0 UV-I 0 W/m -0,9 C 1,2 C 3,2 km/h (1 Bft) 95,65 %
25.10.2021 00:33 1,2 C 0,0 C 86 % 1027,4 hPa 0,0 l/m 1,6 km/h (1 Bft) O-SO 112 0,000 mm 0,0 UV-I 0 W/m -0,9 C 1,2 C 3,2 km/h (1 Bft) 95,65 %
25.10.2021 00:32 1,3 C 0,0 C 86 % 1027,4 hPa 0,0 l/m 3,2 km/h (1 Bft) O-SO 112 0,000 mm 0,0 UV-I 0 W/m -0,8 C 1,3 C 4,8 km/h (1 Bft) 100,00 %
25.10.2021 00:31 1,3 C 0,0 C 86 % 1027,4 hPa 0,0 l/m 3,2 km/h (1 Bft) O-SO 112 0,000 mm 0,0 UV-I 0 W/m -0,8 C 1,3 C 4,8 km/h (1 Bft) 95,65 %
25.10.2021 00:30 1,3 C 0,0 C 86 % 1027,4 hPa 0,0 l/m 1,6 km/h (1 Bft) O-SO 112 0,000 mm 0,0 UV-I 0 W/m -0,8 C 1,3 C 4,8 km/h (1 Bft) 91,30 %
25.10.2021 00:29 1,3 C 0,0 C 86 % 1027,5 hPa 0,0 l/m 1,6 km/h (1 Bft) O-SO 112 0,000 mm 0,0 UV-I 0 W/m -0,8 C 1,3 C 3,2 km/h (1 Bft) 95,65 %
25.10.2021 00:28 1,3 C 0,0 C 86 % 1027,5 hPa 0,0 l/m 1,6 km/h (1 Bft) O-SO 112 0,000 mm 0,0 UV-I 0 W/m -0,8 C 1,3 C 3,2 km/h (1 Bft) 91,30 %
25.10.2021 00:27 1,3 C 0,0 C 86 % 1027,5 hPa 0,0 l/m 1,6 km/h (1 Bft) O-SO 112 0,000 mm 0,0 UV-I 0 W/m -0,8 C 1,3 C 4,8 km/h (1 Bft) 95,65 %
25.10.2021 00:26 1,3 C 0,0 C 86 % 1027,5 hPa 0,0 l/m 3,2 km/h (1 Bft) O-SO 112 0,000 mm 0,0 UV-I 0 W/m -0,8 C 1,3 C 4,8 km/h (1 Bft) 91,30 %
25.10.2021 00:25 1,4 C 0,6 C 86 % 1027,5 hPa 0,0 l/m 1,6 km/h (1 Bft) O-SO 112 0,000 mm 0,0 UV-I 0 W/m -0,7 C 1,4 C 4,8 km/h (1 Bft) 100,00 %
25.10.2021 00:24 1,4 C 0,6 C 86 % 1027,6 hPa 0,0 l/m 3,2 km/h (1 Bft) O-SO 112 0,000 mm 0,0 UV-I 0 W/m -0,7 C 1,4 C 4,8 km/h (1 Bft) 91,30 %
25.10.2021 00:23 1,4 C 0,6 C 86 % 1027,6 hPa 0,0 l/m 0,0 km/h (0 Bft) O-SO 112 0,000 mm 0,0 UV-I 0 W/m -0,7 C 1,4 C 1,6 km/h (1 Bft) 91,30 %
25.10.2021 00:22 1,4 C 0,6 C 86 % 1027,6 hPa 0,0 l/m 0,0 km/h (0 Bft) O-SO 112 0,000 mm 0,0 UV-I 0 W/m -0,7 C 1,4 C 1,6 km/h (1 Bft) 95,65 %
25.10.2021 00:21 1,4 C 0,6 C 86 % 1027,6 hPa 0,0 l/m 0,0 km/h (0 Bft) N 0 0,000 mm 0,0 UV-I 0 W/m -0,7 C 1,4 C 0,0 km/h (0 Bft) 95,65 %
25.10.2021 00:20 1,4 C 0,6 C 86 % 1027,7 hPa 0,0 l/m 0,0 km/h (0 Bft) N 0 0,000 mm 0,0 UV-I 0 W/m -0,7 C 1,4 C 0,0 km/h (0 Bft) 91,30 %
25.10.2021 00:19 1,4 C 0,6 C 86 % 1027,6 hPa 0,0 l/m 1,6 km/h (1 Bft) O-SO 112 0,000 mm 0,0 UV-I 0 W/m -0,7 C 1,4 C 4,8 km/h (1 Bft) 95,65 %
25.10.2021 00:18 1,4 C 0,6 C 86 % 1027,7 hPa 0,0 l/m 0,0 km/h (0 Bft) O-SO 112 0,000 mm 0,0 UV-I 0 W/m -0,7 C 1,4 C 1,6 km/h (1 Bft) 91,30 %
25.10.2021 00:17 1,5 C 0,6 C 86 % 1027,6 hPa 0,0 l/m 1,6 km/h (1 Bft) O-SO 112 0,000 mm 0,0 UV-I 0 W/m -0,6 C 1,5 C 3,2 km/h (1 Bft) 91,30 %
25.10.2021 00:16 1,5 C 0,6 C 86 % 1027,5 hPa 0,0 l/m 0,0 km/h (0 Bft) O-SO 112 0,000 mm 0,0 UV-I 0 W/m -0,6 C 1,5 C 1,6 km/h (1 Bft) 95,65 %
25.10.2021 00:15 1,5 C 0,6 C 86 % 1027,6 hPa 0,0 l/m 0,0 km/h (0 Bft) O-SO 112 0,000 mm 0,0 UV-I 0 W/m -0,6 C 1,5 C 1,6 km/h (1 Bft) 82,61 %
25.10.2021 00:14 1,5 C 0,6 C 86 % 1027,6 hPa 0,0 l/m 1,6 km/h (1 Bft) O-SO 112 0,000 mm 0,0 UV-I 0 W/m -0,6 C 1,5 C 4,8 km/h (1 Bft) 95,65 %
25.10.2021 00:13 1,5 C 0,6 C 86 % 1027,6 hPa 0,0 l/m 1,6 km/h (1 Bft) O-SO 112 0,000 mm 0,0 UV-I 0 W/m -0,6 C 1,5 C 4,8 km/h (1 Bft) 91,30 %
25.10.2021 00:12 1,5 C 0,6 C 86 % 1027,6 hPa 0,0 l/m 1,6 km/h (1 Bft) O-SO 112 0,000 mm 0,0 UV-I 0 W/m -0,6 C 1,5 C 3,2 km/h (1 Bft) 91,30 %
25.10.2021 00:11 1,5 C 0,6 C 86 % 1027,7 hPa 0,0 l/m 1,6 km/h (1 Bft) O-SO 112 0,000 mm 0,0 UV-I 0 W/m -0,6 C 1,5 C 3,2 km/h (1 Bft) 86,96 %
25.10.2021 00:10 1,6 C 0,6 C 86 % 1027,7 hPa 0,0 l/m 0,0 km/h (0 Bft) O-SO 112 0,000 mm 0,0 UV-I 0 W/m -0,5 C 1,6 C 1,6 km/h (1 Bft) 100,00 %
25.10.2021 00:09 1,6 C 0,6 C 86 % 1027,7 hPa 0,0 l/m 1,6 km/h (1 Bft) O-SO 112 0,000 mm 0,0 UV-I 0 W/m -0,5 C 1,6 C 3,2 km/h (1 Bft) 86,96 %
25.10.2021 00:08 1,6 C 0,6 C 86 % 1027,7 hPa 0,0 l/m 1,6 km/h (1 Bft) O-SO 112 0,000 mm 0,0 UV-I 0 W/m -0,5 C 1,6 C 4,8 km/h (1 Bft) 91,30 %
25.10.2021 00:07 1,6 C 0,6 C 86 % 1027,7 hPa 0,0 l/m 0,0 km/h (0 Bft) O-SO 112 0,000 mm 0,0 UV-I 0 W/m -0,5 C 1,6 C 1,6 km/h (1 Bft) 91,30 %
25.10.2021 00:06 1,6 C 0,6 C 86 % 1027,8 hPa 0,0 l/m 1,6 km/h (1 Bft) O-SO 112 0,000 mm 0,0 UV-I 0 W/m -0,5 C 1,6 C 3,2 km/h (1 Bft) 86,96 %
25.10.2021 00:05 1,6 C 0,6 C 86 % 1027,8 hPa 0,0 l/m 1,6 km/h (1 Bft) O-SO 112 0,000 mm 0,0 UV-I 0 W/m -0,5 C 1,6 C 3,2 km/h (1 Bft) 86,96 %
25.10.2021 00:04 1,6 C 1,1 C 86 % 1027,7 hPa 0,0 l/m 0,0 km/h (0 Bft) O-SO 112 0,000 mm 0,0 UV-I 0 W/m -0,5 C 1,6 C 1,6 km/h (1 Bft) 95,65 %
25.10.2021 00:03 1,6 C 1,1 C 86 % 1027,8 hPa 0,0 l/m 1,6 km/h (1 Bft) O-SO 112 0,000 mm 0,0 UV-I 0 W/m -0,5 C 1,6 C 3,2 km/h (1 Bft) 91,30 %
25.10.2021 00:02 1,6 C 1,1 C 86 % 1027,9 hPa 0,0 l/m 1,6 km/h (1 Bft) O-SO 112 0,000 mm 0,0 UV-I 0 W/m -0,5 C 1,6 C 3,2 km/h (1 Bft) 91,30 %
25.10.2021 00:01 1,6 C 1,1 C 86 % 1027,8 hPa 0,0 l/m 1,6 km/h (1 Bft) O-SO 112 0,000 mm 0,0 UV-I 0 W/m -0,5 C 1,6 C 3,2 km/h (1 Bft) 91,30 %
25.10.2021 00:00 1,6 C 1,1 C 86 % 1027,8 hPa 0,0 l/m 0,0 km/h (0 Bft) O-SO 112 0,000 mm 0,0 UV-I 0 W/m -0,5 C 1,6 C 1,6 km/h (1 Bft) 91,30 %
_ Min-Zeit 07:18 04:12 01:16 06:58 - 00:00 - - - - - 07:18 07:18 00:20 00:15
Minimum _ -3,3 C -2,8 C 84 % 1025,6 hPa - 0,0 km/h (0 Bft) - - - - - -4,7 C -3,3 C 0,0 km/h (0 Bft) 82,61 %
_ Max-Zeit 10:27 10:20 09:15 00:02 00:00 10:01 - - 10:00 10:19 10:28 10:27 10:27 10:18 00:10
Maximum _ 5,3 C 6,7 C 95 % 1027,9 hPa 0,0 l/m 11,3 km/h
SO (2 Bft)
- - 0,076 mm 1,0 UV-I 396 W/m 2,8 C 5,3 C 16,1 km/h
S-SO (3 Bft)
100,00 %
Durchschnitt _ -1,3 C -1,1 C 89 % 1026,4 hPa #0,0 l/m 1,6 km/h (1 Bft) O-SO - #0,101 mm 0,7 UV-I 165 W/m -2,9 C -1,3 C 2,7 km/h (1 Bft) 94,44 %